Wetterdaten: Samstag, 15.07.2017
Datum Zeit Temp. Aussen Temp. o. S. +5cm Feuchte Auss BlattFeu 1 Luftdruck Regen Sonnenschein Regendauer Solar Windben Empfang
15.07.2017 00:00 13,8 C 12,8 C 11,1 C 83 % 0 lf 1018,8 hPa 0,0 l/m 0 min 0 min 0 W/m 12,6 km/h (3 Bft) 95,65 %
15.07.2017 00:02 13,8 C 12,8 C 11,7 C 84 % 0 lf 1018,8 hPa 0,0 l/m 0 min 0 min 0 W/m 10,5 km/h (2 Bft) 96,88 %
15.07.2017 00:04 13,8 C 12,8 C 11,1 C 84 % 0 lf 1018,8 hPa 0,0 l/m 0 min 0 min 0 W/m 12,6 km/h (3 Bft) 100,00 %
15.07.2017 00:06 13,7 C 12,8 C 11,1 C 84 % 0 lf 1018,9 hPa 0,0 l/m 0 min 0 min 0 W/m 12,6 km/h (3 Bft) 95,74 %
15.07.2017 00:10 13,7 C 12,8 C 11,1 C 84 % 0 lf 1019,0 hPa 0,0 l/m 0 min 0 min 0 W/m 12,6 km/h (3 Bft) 100,00 %
15.07.2017 00:12 13,7 C 12,8 C 11,1 C 84 % 0 lf 1019,0 hPa 0,0 l/m 0 min 0 min 5 W/m 8,4 km/h (2 Bft) 100,00 %
15.07.2017 00:14 13,6 C 12,2 C 11,1 C 84 % 0 lf 1019,0 hPa 0,0 l/m 0 min 0 min 5 W/m 8,4 km/h (2 Bft) 100,00 %
15.07.2017 00:16 13,6 C 12,2 C 11,1 C 84 % 0 lf 1019,0 hPa 0,0 l/m 0 min 0 min 5 W/m 10,5 km/h (2 Bft) 100,00 %
15.07.2017 00:18 13,6 C 12,2 C 11,1 C 84 % 0 lf 1018,9 hPa 0,0 l/m 0 min 0 min 5 W/m 12,6 km/h (3 Bft) 97,87 %
15.07.2017 00:20 13,6 C 12,2 C 11,1 C 84 % 0 lf 1019,0 hPa 0,0 l/m 0 min 0 min 5 W/m 8,4 km/h (2 Bft) 97,83 %
15.07.2017 00:22 13,5 C 12,2 C 10,6 C 84 % 0 lf 1019,0 hPa 0,0 l/m 0 min 0 min 5 W/m 10,5 km/h (2 Bft) 100,00 %
15.07.2017 00:24 13,5 C 12,2 C 10,6 C 84 % 0 lf 1019,0 hPa 0,0 l/m 0 min 0 min 5 W/m 12,6 km/h (3 Bft) 97,87 %
15.07.2017 00:26 13,4 C 12,2 C 10,6 C 85 % 0 lf 1019,0 hPa 0,0 l/m 0 min 0 min 0 W/m 10,5 km/h (2 Bft) 97,87 %
15.07.2017 00:28 13,4 C 12,2 C 10,6 C 85 % 0 lf 1019,0 hPa 0,0 l/m 0 min 0 min 0 W/m 8,4 km/h (2 Bft) 97,87 %
15.07.2017 00:30 13,4 C 12,2 C 10,6 C 85 % 0 lf 1019,0 hPa 0,0 l/m 0 min 0 min 0 W/m 8,4 km/h (2 Bft) 97,87 %
15.07.2017 00:32 13,3 C 12,2 C 10,6 C 85 % 0 lf 1019,0 hPa 0,0 l/m 0 min 0 min 0 W/m 10,5 km/h (2 Bft) 95,65 %
15.07.2017 00:34 13,3 C 11,7 C 10,6 C 85 % 0 lf 1019,0 hPa 0,0 l/m 0 min 0 min 0 W/m 14,6 km/h (3 Bft) 95,74 %
15.07.2017 00:36 13,3 C 12,2 C 10,6 C 85 % 0 lf 1019,1 hPa 0,0 l/m 0 min 0 min 0 W/m 8,4 km/h (2 Bft) 93,62 %
15.07.2017 00:38 13,3 C 11,7 C 10,6 C 85 % 0 lf 1019,1 hPa 0,0 l/m 0 min 0 min 0 W/m 8,4 km/h (2 Bft) 97,87 %
15.07.2017 00:40 13,2 C 11,7 C 10,6 C 85 % 0 lf 1019,1 hPa 0,0 l/m 0 min 0 min 0 W/m 8,4 km/h (2 Bft) 95,74 %
15.07.2017 00:42 13,2 C 11,7 C 10,6 C 85 % 0 lf 1019,1 hPa 0,0 l/m 0 min 0 min 0 W/m 8,4 km/h (2 Bft) 97,87 %
15.07.2017 00:44 13,2 C 11,7 C 10,6 C 85 % 0 lf 1019,1 hPa 0,0 l/m 0 min 0 min 0 W/m 8,4 km/h (2 Bft) 97,83 %
15.07.2017 00:46 13,2 C 11,7 C 10,6 C 85 % 0 lf 1019,2 hPa 0,0 l/m 0 min 0 min 2 W/m 6,3 km/h (2 Bft) 97,87 %
15.07.2017 00:48 13,1 C 11,7 C 10,6 C 85 % 0 lf 1019,2 hPa 0,0 l/m 0 min 0 min 1 W/m 8,4 km/h (2 Bft) 97,87 %
15.07.2017 00:50 13,1 C 11,7 C 10,0 C 85 % 0 lf 1019,1 hPa 0,0 l/m 0 min 0 min 5 W/m 6,3 km/h (2 Bft) 91,49 %
15.07.2017 00:52 13,1 C 11,7 C 10,0 C 85 % 0 lf 1019,2 hPa 0,0 l/m 0 min 0 min 5 W/m 10,5 km/h (2 Bft) 89,36 %
15.07.2017 00:54 13,0 C 11,7 C 10,0 C 85 % 0 lf 1019,1 hPa 0,0 l/m 0 min 0 min 5 W/m 8,4 km/h (2 Bft) 97,87 %
15.07.2017 00:56 13,0 C 11,7 C 10,0 C 85 % 0 lf 1019,2 hPa 0,0 l/m 0 min 0 min 0 W/m 4,2 km/h (1 Bft) 97,83 %
15.07.2017 00:58 12,9 C 11,7 C 10,0 C 85 % 0 lf 1019,2 hPa 0,0 l/m 0 min 0 min 0 W/m 6,3 km/h (2 Bft) 97,87 %
15.07.2017 01:00 12,9 C 11,7 C 10,0 C 85 % 0 lf 1019,1 hPa 0,0 l/m 0 min 0 min 5 W/m 4,2 km/h (1 Bft) 97,87 %
15.07.2017 01:02 12,9 C 11,1 C 10,0 C 86 % 0 lf 1019,1 hPa 0,0 l/m 0 min 0 min 5 W/m 2,1 km/h (1 Bft) 97,87 %
15.07.2017 01:04 12,9 C 11,1 C 10,0 C 86 % 0 lf 1019,2 hPa 0,0 l/m 0 min 0 min 5 W/m 0,0 km/h (0 Bft) 100,00 %
15.07.2017 01:06 12,8 C 11,1 C 10,0 C 86 % 0 lf 1019,1 hPa 0,0 l/m 0 min 0 min 5 W/m 2,1 km/h (1 Bft) 97,83 %
15.07.2017 01:08 12,8 C 11,1 C 10,0 C 86 % 0 lf 1019,1 hPa 0,0 l/m 0 min 0 min 0 W/m 4,2 km/h (1 Bft) 97,87 %
15.07.2017 01:10 12,8 C 11,1 C 10,0 C 86 % 0 lf 1019,2 hPa 0,0 l/m 0 min 0 min 0 W/m 6,3 km/h (2 Bft) 93,62 %
15.07.2017 01:13 12,7 C 11,1 C 10,0 C 86 % 0 lf 1019,1 hPa 0,0 l/m 0 min 0 min 0 W/m 6,3 km/h (2 Bft) 98,57 %
15.07.2017 01:14 12,7 C 11,1 C 10,0 C 86 % 0 lf 1019,1 hPa 0,0 l/m 0 min 0 min 0 W/m 6,3 km/h (2 Bft) 100,00 %
15.07.2017 01:16 12,7 C 11,1 C 10,0 C 86 % 0 lf 1019,2 hPa 0,0 l/m 0 min 0 min 0 W/m 4,2 km/h (1 Bft) 97,87 %
15.07.2017 01:18 12,7 C 11,1 C 10,0 C 86 % 0 lf 1019,1 hPa 0,0 l/m 0 min 0 min 0 W/m 4,2 km/h (1 Bft) 97,83 %
15.07.2017 01:20 12,6 C 11,1 C 10,0 C 86 % 0 lf 1019,2 hPa 0,0 l/m 0 min 0 min 5 W/m 6,3 km/h (2 Bft) 100,00 %
15.07.2017 01:22 12,6 C 11,1 C 10,0 C 87 % 0 lf 1019,2 hPa 0,0 l/m 0 min 0 min 5 W/m 6,3 km/h (2 Bft) 97,87 %
15.07.2017 01:24 12,6 C 11,1 C 10,0 C 87 % 0 lf 1019,2 hPa 0,0 l/m 0 min 0 min 5 W/m 8,4 km/h (2 Bft) 100,00 %
15.07.2017 01:26 12,5 C 11,1 C 10,0 C 87 % 0 lf 1019,1 hPa 0,0 l/m 0 min 0 min 5 W/m 8,4 km/h (2 Bft) 97,87 %
15.07.2017 01:28 12,4 C 11,1 C 10,0 C 87 % 0 lf 1019,1 hPa 0,0 l/m 0 min 0 min 4 W/m 6,3 km/h (2 Bft) 100,00 %
15.07.2017 01:30 12,4 C 11,1 C 10,0 C 87 % 0 lf 1019,2 hPa 0,0 l/m 0 min 0 min 0 W/m 6,3 km/h (2 Bft) 100,00 %
15.07.2017 01:32 12,4 C 11,1 C 10,0 C 87 % 0 lf 1019,2 hPa 0,0 l/m 0 min 0 min 0 W/m 2,1 km/h (1 Bft) 95,74 %
15.07.2017 01:34 12,4 C 11,1 C 10,0 C 88 % 0 lf 1019,2 hPa 0,0 l/m 0 min 0 min 3 W/m 2,1 km/h (1 Bft) 100,00 %
15.07.2017 01:36 12,3 C 11,1 C 10,0 C 88 % 0 lf 1019,2 hPa 0,0 l/m 0 min 0 min 0 W/m 2,1 km/h (1 Bft) 100,00 %
15.07.2017 01:38 12,3 C 11,1 C 10,0 C 88 % 0 lf 1019,2 hPa 0,0 l/m 0 min 0 min 1 W/m 4,2 km/h (1 Bft) 95,74 %
15.07.2017 01:40 12,3 C 11,1 C 9,4 C 88 % 0 lf 1019,2 hPa 0,0 l/m 0 min 0 min 5 W/m 2,1 km/h (1 Bft) 97,87 %
15.07.2017 01:42 12,3 C 10,6 C 9,4 C 88 % 0 lf 1019,2 hPa 0,0 l/m 0 min 0 min 0 W/m 2,1 km/h (1 Bft) 95,65 %
15.07.2017 01:44 12,2 C 10,6 C 9,4 C 88 % 0 lf 1019,3 hPa 0,0 l/m 0 min 0 min 5 W/m 2,1 km/h (1 Bft) 95,74 %
15.07.2017 01:46 12,2 C 10,6 C 9,4 C 88 % 0 lf 1019,3 hPa 0,0 l/m 0 min 0 min 5 W/m 4,2 km/h (1 Bft) 93,62 %
15.07.2017 01:48 12,2 C 10,6 C 9,4 C 88 % 1 lf 1019,3 hPa 0,0 l/m 0 min 0 min 0 W/m 0,0 km/h (0 Bft) 93,62 %
15.07.2017 01:50 12,2 C 10,6 C 9,4 C 88 % 1 lf 1019,3 hPa 0,0 l/m 0 min 0 min 2 W/m 4,2 km/h (1 Bft) 91,49 %
15.07.2017 01:52 12,1 C 10,6 C 9,4 C 88 % 1 lf 1019,3 hPa 0,0 l/m 0 min 0 min 4 W/m 4,2 km/h (1 Bft) 95,74 %
15.07.2017 01:54 12,1 C 10,6 C 9,4 C 88 % 1 lf 1019,3 hPa 0,0 l/m 0 min 0 min 1 W/m 4,2 km/h (1 Bft) 93,48 %
15.07.2017 01:56 12,1 C 10,6 C 9,4 C 88 % 1 lf 1019,3 hPa 0,0 l/m 0 min 0 min 4 W/m 4,2 km/h (1 Bft) 93,62 %
15.07.2017 01:58 12,1 C 10,6 C 9,4 C 88 % 1 lf 1019,4 hPa 0,0 l/m 0 min 0 min 0 W/m 4,2 km/h (1 Bft) 95,74 %
15.07.2017 02:00 12,0 C 10,6 C 9,4 C 88 % 1 lf 1019,4 hPa 0,0 l/m 0 min 0 min 0 W/m 4,2 km/h (1 Bft) 95,74 %
15.07.2017 02:02 12,0 C 10,6 C 9,4 C 88 % 1 lf 1019,4 hPa 0,0 l/m 0 min 0 min 3 W/m 6,3 km/h (2 Bft) 95,74 %
15.07.2017 02:04 11,9 C 10,6 C 9,4 C 88 % 1 lf 1019,4 hPa 0,0 l/m 0 min 0 min 5 W/m 4,2 km/h (1 Bft) 93,62 %
15.07.2017 02:06 11,9 C 10,6 C 9,4 C 88 % 1 lf 1019,4 hPa 0,0 l/m 0 min 0 min 3 W/m 6,3 km/h (2 Bft) 91,30 %
15.07.2017 02:08 11,9 C 10,6 C 9,4 C 88 % 1 lf 1019,4 hPa 0,0 l/m 0 min 0 min 1 W/m 4,2 km/h (1 Bft) 95,74 %
15.07.2017 02:10 11,9 C 10,6 C 9,4 C 88 % 1 lf 1019,3 hPa 0,0 l/m 0 min 0 min 5 W/m 6,3 km/h (2 Bft) 93,62 %
15.07.2017 02:12 11,8 C 10,6 C 9,4 C 88 % 1 lf 1019,4 hPa 0,0 l/m 0 min 0 min 5 W/m 8,4 km/h (2 Bft) 93,62 %
15.07.2017 02:14 11,8 C 10,6 C 9,4 C 88 % 1 lf 1019,4 hPa 0,0 l/m 0 min 0 min 4 W/m 6,3 km/h (2 Bft) 89,36 %
15.07.2017 02:16 11,8 C 10,6 C 9,4 C 89 % 1 lf 1019,4 hPa 0,0 l/m 0 min 0 min 0 W/m 8,4 km/h (2 Bft) 93,48 %
15.07.2017 02:18 11,8 C 10,6 C 9,4 C 89 % 1 lf 1019,4 hPa 0,0 l/m 0 min 0 min 0 W/m 8,4 km/h (2 Bft) 93,62 %
15.07.2017 02:20 11,8 C 10,6 C 9,4 C 89 % 1 lf 1019,4 hPa 0,0 l/m 0 min 0 min 2 W/m 4,2 km/h (1 Bft) 93,62 %
15.07.2017 02:22 11,8 C 10,6 C 9,4 C 89 % 1 lf 1019,4 hPa 0,0 l/m 0 min 0 min 0 W/m 4,2 km/h (1 Bft) 91,49 %
15.07.2017 02:24 11,7 C 10,6 C 9,4 C 89 % 1 lf 1019,4 hPa 0,0 l/m 0 min 0 min 0 W/m 6,3 km/h (2 Bft) 89,36 %
15.07.2017 02:26 11,7 C 10,6 C 9,4 C 90 % 1 lf 1019,5 hPa 0,0 l/m 0 min 0 min 0 W/m 8,4 km/h (2 Bft) 93,62 %
15.07.2017 02:28 11,7 C 10,6 C 9,4 C 89 % 1 lf 1019,4 hPa 0,0 l/m 0 min 0 min 0 W/m 4,2 km/h (1 Bft) 97,83 %
15.07.2017 02:30 11,7 C 10,6 C 9,4 C 90 % 1 lf 1019,4 hPa 0,0 l/m 0 min 0 min 0 W/m 6,3 km/h (2 Bft) 93,62 %
15.07.2017 02:32 11,7 C 10,6 C 9,4 C 90 % 1 lf 1019,4 hPa 0,0 l/m 0 min 0 min 0 W/m 6,3 km/h (2 Bft) 97,87 %
15.07.2017 02:34 11,7 C 10,6 C 9,4 C 90 % 1 lf 1019,4 hPa 0,0 l/m 0 min 0 min 0 W/m 6,3 km/h (2 Bft) 95,74 %
15.07.2017 02:36 11,7 C 10,6 C 9,4 C 90 % 1 lf 1019,5 hPa 0,0 l/m 0 min 0 min 0 W/m 6,3 km/h (2 Bft) 97,87 %
15.07.2017 02:38 11,6 C 10,6 C 9,4 C 90 % 1 lf 1019,4 hPa 0,0 l/m 0 min 0 min 0 W/m 2,1 km/h (1 Bft) 97,87 %
15.07.2017 02:40 11,6 C 10,6 C 9,4 C 90 % 1 lf 1019,4 hPa 0,0 l/m 0 min 0 min 0 W/m 6,3 km/h (2 Bft) 91,30 %
15.07.2017 02:42 11,6 C 10,6 C 9,4 C 90 % 1 lf 1019,4 hPa 0,0 l/m 0 min 0 min 0 W/m 6,3 km/h (2 Bft) 93,62 %
15.07.2017 02:44 11,6 C 10,6 C 9,4 C 90 % 1 lf 1019,4 hPa 0,0 l/m 0 min 0 min 0 W/m 4,2 km/h (1 Bft) 95,74 %
15.07.2017 02:46 11,6 C 10,6 C 9,4 C 90 % 1 lf 1019,4 hPa 0,0 l/m 0 min 0 min 0 W/m 4,2 km/h (1 Bft) 93,62 %
15.07.2017 02:48 11,6 C 10,0 C 9,4 C 90 % 1 lf 1019,4 hPa 0,0 l/m 0 min 0 min 0 W/m 4,2 km/h (1 Bft) 91,49 %
15.07.2017 02:50 11,5 C 10,6 C 9,4 C 91 % 1 lf 1019,4 hPa 0,0 l/m 0 min 0 min 0 W/m 8,4 km/h (2 Bft) 93,62 %
15.07.2017 02:52 11,5 C 10,0 C 9,4 C 91 % 1 lf 1019,4 hPa 0,0 l/m 0 min 0 min 0 W/m 8,4 km/h (2 Bft) 93,48 %
15.07.2017 02:54 11,5 C 10,0 C 9,4 C 91 % 1 lf 1019,4 hPa 0,0 l/m 0 min 0 min 0 W/m 8,4 km/h (2 Bft) 97,87 %
15.07.2017 02:56 11,4 C 10,0 C 9,4 C 90 % 1 lf 1019,4 hPa 0,0 l/m 0 min 0 min 0 W/m 6,3 km/h (2 Bft) 95,74 %
15.07.2017 02:58 11,4 C 10,0 C 9,4 C 90 % 1 lf 1019,4 hPa 0,0 l/m 0 min 0 min 0 W/m 6,3 km/h (2 Bft) 97,87 %
15.07.2017 03:00 11,4 C 10,0 C 9,4 C 90 % 1 lf 1019,4 hPa 0,0 l/m 0 min 0 min 0 W/m 6,3 km/h (2 Bft) 97,87 %
15.07.2017 03:02 11,4 C 10,0 C 9,4 C 91 % 1 lf 1019,4 hPa 0,0 l/m 0 min 0 min 0 W/m 6,3 km/h (2 Bft) 97,87 %
15.07.2017 03:04 11,4 C 10,0 C 9,4 C 91 % 1 lf 1019,5 hPa 0,0 l/m 0 min 0 min 0 W/m 6,3 km/h (2 Bft) 97,83 %
15.07.2017 03:06 11,4 C 10,0 C 9,4 C 91 % 1 lf 1019,4 hPa 0,0 l/m 0 min 0 min 0 W/m 4,2 km/h (1 Bft) 95,74 %
15.07.2017 03:08 11,4 C 10,6 C 9,4 C 91 % 1 lf 1019,4 hPa 0,0 l/m 0 min 0 min 0 W/m 6,3 km/h (2 Bft) 97,87 %
15.07.2017 03:10 11,3 C 10,0 C 9,4 C 91 % 1 lf 1019,5 hPa 0,0 l/m 0 min 0 min 0 W/m 6,3 km/h (2 Bft) 91,49 %
15.07.2017 03:12 11,3 C 10,0 C 9,4 C 91 % 1 lf 1019,5 hPa 0,0 l/m 0 min 0 min 0 W/m 6,3 km/h (2 Bft) 97,87 %
15.07.2017 03:14 11,3 C 10,0 C 9,4 C 91 % 1 lf 1019,5 hPa 0,0 l/m 0 min 0 min 0 W/m 6,3 km/h (2 Bft) 97,87 %
15.07.2017 03:16 11,3 C 10,0 C 9,4 C 91 % 1 lf 1019,5 hPa 0,0 l/m 0 min 0 min 0 W/m 4,2 km/h (1 Bft) 97,83 %
15.07.2017 03:18 11,3 C 10,0 C 9,4 C 91 % 1 lf 1019,5 hPa 0,0 l/m 0 min 0 min 0 W/m 6,3 km/h (2 Bft) 97,87 %
15.07.2017 03:20 11,3 C 10,0 C 8,9 C 91 % 1 lf 1019,5 hPa 0,0 l/m 0 min 0 min 0 W/m 6,3 km/h (2 Bft) 95,74 %
15.07.2017 03:22 11,2 C 10,0 C 8,9 C 91 % 1 lf 1019,6 hPa 0,0 l/m 0 min 0 min 0 W/m 6,3 km/h (2 Bft) 97,87 %
15.07.2017 03:24 11,2 C 10,0 C 8,9 C 91 % 2 lf 1019,5 hPa 0,0 l/m 0 min 0 min 0 W/m 10,5 km/h (2 Bft) 97,87 %
15.07.2017 03:26 11,2 C 10,0 C 8,9 C 91 % 2 lf 1019,5 hPa 0,0 l/m 0 min 0 min 0 W/m 8,4 km/h (2 Bft) 93,62 %
15.07.2017 03:28 11,2 C 10,0 C 8,9 C 91 % 2 lf 1019,5 hPa 0,0 l/m 0 min 0 min 0 W/m 6,3 km/h (2 Bft) 89,13 %
15.07.2017 03:30 11,2 C 10,0 C 8,9 C 91 % 2 lf 1019,5 hPa 0,0 l/m 0 min 0 min 0 W/m 8,4 km/h (2 Bft) 95,74 %
15.07.2017 03:32 11,2 C 10,0 C 8,9 C 91 % 2 lf 1019,5 hPa 0,0 l/m 0 min 0 min 0 W/m 4,2 km/h (1 Bft) 97,87 %
15.07.2017 03:34 11,1 C 10,0 C 8,9 C 91 % 2 lf 1019,5 hPa 0,0 l/m 0 min 0 min 0 W/m 6,3 km/h (2 Bft) 95,74 %
15.07.2017 03:36 11,1 C 10,0 C 8,9 C 91 % 2 lf 1019,5 hPa 0,0 l/m 0 min 0 min 0 W/m 6,3 km/h (2 Bft) 97,87 %
15.07.2017 03:38 11,1 C 10,0 C 8,9 C 91 % 2 lf 1019,5 hPa 0,0 l/m 0 min 0 min 0 W/m 8,4 km/h (2 Bft) 95,74 %
15.07.2017 03:40 11,1 C 10,0 C 8,9 C 91 % 2 lf 1019,5 hPa 0,0 l/m 0 min 0 min 0 W/m 6,3 km/h (2 Bft) 95,65 %
15.07.2017 03:42 11,1 C 10,0 C 8,9 C 92 % 2 lf 1019,5 hPa 0,0 l/m 0 min 0 min 0 W/m 4,2 km/h (1 Bft) 97,87 %
15.07.2017 03:44 11,1 C 10,0 C 8,9 C 92 % 2 lf 1019,5 hPa 0,0 l/m 0 min 0 min 0 W/m 4,2 km/h (1 Bft) 97,87 %
15.07.2017 03:46 11,1 C 10,0 C 8,9 C 92 % 2 lf 1019,5 hPa 0,0 l/m 0 min 0 min 0 W/m 4,2 km/h (1 Bft) 93,62 %
15.07.2017 03:48 11,1 C 10,0 C 8,9 C 92 % 2 lf 1019,4 hPa 0,0 l/m 0 min 0 min 0 W/m 8,4 km/h (2 Bft) 95,74 %
15.07.2017 03:50 11,1 C 10,6 C 9,4 C 92 % 2 lf 1019,5 hPa 0,0 l/m 0 min 0 min 4 W/m 8,4 km/h (2 Bft) 97,83 %
15.07.2017 03:52 11,1 C 10,0 C 9,4 C 92 % 2 lf 1019,5 hPa 0,0 l/m 0 min 0 min 1 W/m 6,3 km/h (2 Bft) 95,74 %
15.07.2017 03:54 11,1 C 10,0 C 9,4 C 92 % 2 lf 1019,5 hPa 0,0 l/m 0 min 0 min 0 W/m 6,3 km/h (2 Bft) 100,00 %
15.07.2017 03:56 11,1 C 10,0 C 9,4 C 92 % 2 lf 1019,6 hPa 0,0 l/m 0 min 0 min 0 W/m 4,2 km/h (1 Bft) 93,62 %
15.07.2017 03:58 11,1 C 10,0 C 8,9 C 92 % 2 lf 1019,5 hPa 0,0 l/m 0 min 0 min 0 W/m 6,3 km/h (2 Bft) 95,74 %
15.07.2017 04:00 11,1 C 10,0 C 8,9 C 92 % 2 lf 1019,5 hPa 0,0 l/m 0 min 0 min 0 W/m 8,4 km/h (2 Bft) 97,87 %
15.07.2017 04:02 11,0 C 10,0 C 8,9 C 92 % 2 lf 1019,5 hPa 0,0 l/m 0 min 0 min 0 W/m 8,4 km/h (2 Bft) 96,15 %
15.07.2017 04:07 11,0 C 10,0 C 8,9 C 92 % 2 lf 1019,6 hPa 0,0 l/m 0 min 0 min 0 W/m 10,5 km/h (2 Bft) 96,97 %
15.07.2017 04:08 11,0 C 10,0 C 8,9 C 92 % 2 lf 1019,6 hPa 0,0 l/m 0 min 0 min 0 W/m 4,2 km/h (1 Bft) 95,65 %
15.07.2017 04:10 11,0 C 10,0 C 9,4 C 92 % 2 lf 1019,6 hPa 0,0 l/m 0 min 0 min 0 W/m 14,6 km/h (3 Bft) 97,87 %
15.07.2017 04:12 11,0 C 10,6 C 9,4 C 93 % 2 lf 1019,7 hPa 0,0 l/m 0 min 0 min 0 W/m 10,5 km/h (2 Bft) 95,74 %
15.07.2017 04:14 11,0 C 10,6 C 9,4 C 93 % 2 lf 1019,7 hPa 0,0 l/m 0 min 0 min 0 W/m 8,4 km/h (2 Bft) 97,83 %
15.07.2017 04:16 11,0 C 10,6 C 9,4 C 93 % 2 lf 1019,6 hPa 0,0 l/m 0 min 0 min 0 W/m 8,4 km/h (2 Bft) 95,74 %
15.07.2017 04:18 11,0 C 10,6 C 9,4 C 93 % 2 lf 1019,6 hPa 0,0 l/m 0 min 0 min 0 W/m 8,4 km/h (2 Bft) 95,74 %
15.07.2017 04:20 11,0 C 10,6 C 9,4 C 93 % 2 lf 1019,6 hPa 0,0 l/m 0 min 0 min 0 W/m 8,4 km/h (2 Bft) 97,87 %
15.07.2017 04:22 11,0 C 10,0 C 9,4 C 93 % 2 lf 1019,6 hPa 0,0 l/m 0 min 0 min 0 W/m 8,4 km/h (2 Bft) 97,87 %
15.07.2017 04:24 10,9 C 10,0 C 9,4 C 93 % 2 lf 1019,6 hPa 0,0 l/m 0 min 0 min 0 W/m 10,5 km/h (2 Bft) 95,74 %
15.07.2017 04:26 10,9 C 10,6 C 9,4 C 93 % 2 lf 1019,6 hPa 0,0 l/m 0 min 0 min 0 W/m 10,5 km/h (2 Bft) 93,48 %
15.07.2017 04:28 10,9 C 10,6 C 9,4 C 93 % 2 lf 1019,5 hPa 0,0 l/m 0 min 0 min 0 W/m 10,5 km/h (2 Bft) 95,74 %
15.07.2017 04:30 10,9 C 10,6 C 9,4 C 93 % 2 lf 1019,6 hPa 0,0 l/m 0 min 0 min 0 W/m 8,4 km/h (2 Bft) 89,36 %
15.07.2017 04:32 10,9 C 10,6 C 9,4 C 93 % 2 lf 1019,6 hPa 0,0 l/m 0 min 0 min 0 W/m 10,5 km/h (2 Bft) 95,74 %
15.07.2017 04:34 10,9 C 10,6 C 9,4 C 93 % 2 lf 1019,6 hPa 0,0 l/m 0 min 0 min 0 W/m 12,6 km/h (3 Bft) 95,74 %
15.07.2017 04:36 11,0 C 10,6 C 9,4 C 94 % 1 lf 1019,6 hPa 0,0 l/m 0 min 0 min 0 W/m 10,5 km/h (2 Bft) 93,48 %
15.07.2017 04:38 11,0 C 10,6 C 9,4 C 94 % 1 lf 1019,6 hPa 0,0 l/m 0 min 0 min 0 W/m 8,4 km/h (2 Bft) 95,74 %
15.07.2017 04:40 10,9 C 10,6 C 9,4 C 94 % 1 lf 1019,6 hPa 0,0 l/m 0 min 0 min 0 W/m 8,4 km/h (2 Bft) 93,62 %
15.07.2017 04:42 11,0 C 10,6 C 9,4 C 94 % 1 lf 1019,7 hPa 0,0 l/m 0 min 0 min 0 W/m 12,6 km/h (3 Bft) 93,62 %
15.07.2017 04:44 11,0 C 10,6 C 9,4 C 94 % 1 lf 1019,7 hPa 0,0 l/m 0 min 0 min 0 W/m 6,3 km/h (2 Bft) 89,36 %
15.07.2017 04:46 11,0 C 10,6 C 9,4 C 94 % 1 lf 1019,7 hPa 0,0 l/m 0 min 0 min 0 W/m 8,4 km/h (2 Bft) 91,49 %
15.07.2017 04:48 11,0 C 10,6 C 9,4 C 94 % 1 lf 1019,7 hPa 0,0 l/m 0 min 0 min 0 W/m 10,5 km/h (2 Bft) 91,49 %
15.07.2017 04:50 11,0 C 10,6 C 9,4 C 94 % 1 lf 1019,7 hPa 0,0 l/m 0 min 0 min 0 W/m 8,4 km/h (2 Bft) 95,65 %
15.07.2017 04:52 11,0 C 10,6 C 9,4 C 94 % 1 lf 1019,7 hPa 0,0 l/m 0 min 0 min 0 W/m 14,6 km/h (3 Bft) 93,62 %
15.07.2017 04:54 11,0 C 10,6 C 10,0 C 94 % 1 lf 1019,7 hPa 0,0 l/m 0 min 0 min 0 W/m 10,5 km/h (2 Bft) 95,74 %
15.07.2017 04:56 11,1 C 10,6 C 10,0 C 94 % 1 lf 1019,8 hPa 0,0 l/m 0 min 0 min 0 W/m 6,3 km/h (2 Bft) 95,74 %
15.07.2017 04:58 11,1 C 10,6 C 10,0 C 94 % 1 lf 1019,8 hPa 0,0 l/m 0 min 0 min 0 W/m 10,5 km/h (2 Bft) 93,62 %
15.07.2017 05:00 11,1 C 11,1 C 10,0 C 94 % 1 lf 1019,8 hPa 0,0 l/m 0 min 0 min 0 W/m 10,5 km/h (2 Bft) 95,65 %
15.07.2017 05:02 11,1 C 11,1 C 10,0 C 94 % 1 lf 1019,8 hPa 0,0 l/m 0 min 0 min 0 W/m 10,5 km/h (2 Bft) 95,74 %
15.07.2017 05:04 11,1 C 11,1 C 10,0 C 94 % 1 lf 1019,8 hPa 0,0 l/m 0 min 0 min 0 W/m 12,6 km/h (3 Bft) 93,62 %
15.07.2017 05:06 11,1 C 11,1 C 10,0 C 94 % 1 lf 1019,8 hPa 0,0 l/m 0 min 0 min 0 W/m 6,3 km/h (2 Bft) 93,62 %
15.07.2017 05:08 11,1 C 11,1 C 10,0 C 94 % 1 lf 1019,8 hPa 0,0 l/m 0 min 0 min 0 W/m 12,6 km/h (3 Bft) 95,74 %
15.07.2017 05:10 11,1 C 11,1 C 10,0 C 94 % 1 lf 1019,9 hPa 0,0 l/m 0 min 0 min 0 W/m 8,4 km/h (2 Bft) 95,74 %
15.07.2017 05:12 11,1 C 11,1 C 10,0 C 94 % 1 lf 1019,9 hPa 0,0 l/m 0 min 0 min 0 W/m 6,3 km/h (2 Bft) 95,74 %
15.07.2017 05:14 11,1 C 11,1 C 10,0 C 94 % 1 lf 1019,9 hPa 0,0 l/m 0 min 0 min 0 W/m 8,4 km/h (2 Bft) 97,83 %
15.07.2017 05:16 11,1 C 11,1 C 10,0 C 94 % 1 lf 1020,0 hPa 0,0 l/m 0 min 0 min 3 W/m 10,5 km/h (2 Bft) 95,74 %
15.07.2017 05:18 11,1 C 11,1 C 10,0 C 94 % 1 lf 1020,0 hPa 0,0 l/m 0 min 0 min 5 W/m 12,6 km/h (3 Bft) 95,74 %
15.07.2017 05:20 11,2 C 11,1 C 10,0 C 94 % 1 lf 1020,0 hPa 0,0 l/m 0 min 0 min 7 W/m 6,3 km/h (2 Bft) 95,74 %
15.07.2017 05:22 11,2 C 11,1 C 10,0 C 95 % 0 lf 1020,0 hPa 0,0 l/m 0 min 0 min 9 W/m 12,6 km/h (3 Bft) 93,62 %
15.07.2017 05:24 11,2 C 11,1 C 10,0 C 95 % 0 lf 1020,0 hPa 0,0 l/m 0 min 0 min 11 W/m 6,3 km/h (2 Bft) 95,65 %
15.07.2017 05:26 11,2 C 11,1 C 10,0 C 95 % 1 lf 1020,0 hPa 0,0 l/m 0 min 0 min 12 W/m 6,3 km/h (2 Bft) 97,87 %
15.07.2017 05:28 11,2 C 11,1 C 10,0 C 95 % 1 lf 1020,0 hPa 0,0 l/m 0 min 0 min 13 W/m 8,4 km/h (2 Bft) 97,87 %
15.07.2017 05:30 11,2 C 11,1 C 10,0 C 95 % 1 lf 1020,0 hPa 0,0 l/m 0 min 0 min 15 W/m 4,2 km/h (1 Bft) 95,74 %
15.07.2017 05:32 11,3 C 11,1 C 10,0 C 95 % 1 lf 1020,1 hPa 0,0 l/m 0 min 0 min 16 W/m 8,4 km/h (2 Bft) 95,74 %
15.07.2017 05:34 11,3 C 11,1 C 10,0 C 95 % 1 lf 1020,1 hPa 0,0 l/m 0 min 0 min 16 W/m 6,3 km/h (2 Bft) 97,87 %
15.07.2017 05:36 11,3 C 11,1 C 10,0 C 95 % 1 lf 1020,1 hPa 0,0 l/m 0 min 0 min 17 W/m 8,4 km/h (2 Bft) 97,83 %
15.07.2017 05:38 11,3 C 11,1 C 10,0 C 95 % 1 lf 1020,1 hPa 0,0 l/m 0 min 0 min 18 W/m 8,4 km/h (2 Bft) 97,87 %
15.07.2017 05:40 11,3 C 11,1 C 10,0 C 95 % 1 lf 1020,2 hPa 0,0 l/m 0 min 0 min 19 W/m 6,3 km/h (2 Bft) 100,00 %
15.07.2017 05:42 11,3 C 11,1 C 10,0 C 95 % 1 lf 1020,1 hPa 0,0 l/m 0 min 0 min 21 W/m 4,2 km/h (1 Bft) 100,00 %
15.07.2017 05:44 11,3 C 11,1 C 10,0 C 95 % 1 lf 1020,1 hPa 0,0 l/m 0 min 0 min 3 W/m 8,4 km/h (2 Bft) 97,87 %
15.07.2017 05:46 11,3 C 11,1 C 10,0 C 95 % 1 lf 1020,1 hPa 0,0 l/m 0 min 0 min 8 W/m 6,3 km/h (2 Bft) 97,87 %
15.07.2017 05:48 11,3 C 11,1 C 10,0 C 95 % 1 lf 1020,2 hPa 0,0 l/m 0 min 0 min 13 W/m 8,4 km/h (2 Bft) 97,83 %
15.07.2017 05:50 11,3 C 11,1 C 10,0 C 95 % 1 lf 1020,3 hPa 0,0 l/m 0 min 0 min 17 W/m 8,4 km/h (2 Bft) 95,74 %
15.07.2017 05:52 11,3 C 11,1 C 10,0 C 95 % 0 lf 1020,3 hPa 0,0 l/m 0 min 0 min 17 W/m 8,4 km/h (2 Bft) 100,00 %
15.07.2017 05:54 11,3 C 11,1 C 10,6 C 95 % 0 lf 1020,2 hPa 0,0 l/m 0 min 0 min 19 W/m 8,4 km/h (2 Bft) 97,87 %
15.07.2017 05:56 11,3 C 11,1 C 10,6 C 95 % 0 lf 1020,2 hPa 0,0 l/m 0 min 0 min 18 W/m 8,4 km/h (2 Bft) 93,62 %
15.07.2017 05:58 11,3 C 11,7 C 10,6 C 95 % 0 lf 1020,3 hPa 0,0 l/m 0 min 0 min 18 W/m 6,3 km/h (2 Bft) 95,65 %
15.07.2017 06:00 11,3 C 11,7 C 10,6 C 95 % 0 lf 1020,3 hPa 0,0 l/m 0 min 0 min 18 W/m 6,3 km/h (2 Bft) 100,00 %
15.07.2017 06:02 11,4 C 11,7 C 10,6 C 95 % 0 lf 1020,3 hPa 0,0 l/m 0 min 0 min 18 W/m 12,6 km/h (3 Bft) 95,74 %
15.07.2017 06:04 11,4 C 11,7 C 10,6 C 95 % 0 lf 1020,3 hPa 0,0 l/m 0 min 0 min 22 W/m 6,3 km/h (2 Bft) 100,00 %
15.07.2017 06:06 11,4 C 11,7 C 10,6 C 95 % 0 lf 1020,3 hPa 0,0 l/m 0 min 0 min 23 W/m 6,3 km/h (2 Bft) 93,62 %
15.07.2017 06:08 11,4 C 11,7 C 11,1 C 95 % 0 lf 1020,3 hPa 0,0 l/m 0 min 0 min 24 W/m 8,4 km/h (2 Bft) 97,87 %
15.07.2017 06:12 11,4 C 12,2 C 11,1 C 95 % 0 lf 1020,4 hPa 0,0 l/m 0 min 0 min 25 W/m 8,4 km/h (2 Bft) 97,65 %
15.07.2017 06:14 11,5 C 12,2 C 11,1 C 95 % 0 lf 1020,5 hPa 0,0 l/m 0 min 0 min 33 W/m 8,4 km/h (2 Bft) 91,30 %
15.07.2017 06:16 11,5 C 12,2 C 11,1 C 95 % 0 lf 1020,5 hPa 0,0 l/m 0 min 0 min 31 W/m 10,5 km/h (2 Bft) 97,87 %
15.07.2017 06:18 11,6 C 12,2 C 11,1 C 95 % 0 lf 1020,6 hPa 0,0 l/m 0 min 0 min 29 W/m 10,5 km/h (2 Bft) 97,87 %
15.07.2017 06:20 11,6 C 12,2 C 11,1 C 95 % 0 lf 1020,6 hPa 0,0 l/m 0 min 0 min 33 W/m 8,4 km/h (2 Bft) 91,49 %
15.07.2017 06:22 11,6 C 12,2 C 11,1 C 95 % 0 lf 1020,6 hPa 0,0 l/m 0 min 0 min 36 W/m 8,4 km/h (2 Bft) 95,74 %
15.07.2017 06:24 11,6 C 12,2 C 11,1 C 95 % 0 lf 1020,7 hPa 0,0 l/m 0 min 0 min 37 W/m 12,6 km/h (3 Bft) 97,87 %
15.07.2017 06:26 11,7 C 12,2 C 11,1 C 95 % 0 lf 1020,7 hPa 0,0 l/m 0 min 0 min 39 W/m 10,5 km/h (2 Bft) 97,83 %
15.07.2017 06:28 11,7 C 12,2 C 11,1 C 95 % 0 lf 1020,8 hPa 0,0 l/m 0 min 0 min 44 W/m 10,5 km/h (2 Bft) 91,49 %
15.07.2017 06:30 11,7 C 12,2 C 11,7 C 95 % 0 lf 1020,8 hPa 0,0 l/m 0 min 0 min 47 W/m 8,4 km/h (2 Bft) 95,74 %
15.07.2017 06:32 11,7 C 12,2 C 11,7 C 95 % 0 lf 1020,9 hPa 0,0 l/m 0 min 0 min 50 W/m 8,4 km/h (2 Bft) 100,00 %
15.07.2017 06:34 11,8 C 12,2 C 11,7 C 95 % 0 lf 1020,9 hPa 0,0 l/m 0 min 0 min 51 W/m 8,4 km/h (2 Bft) 97,87 %
15.07.2017 06:36 11,8 C 12,2 C 11,1 C 95 % 0 lf 1020,9 hPa 0,0 l/m 0 min 0 min 50 W/m 6,3 km/h (2 Bft) 100,00 %
15.07.2017 06:38 11,8 C 12,2 C 11,1 C 95 % 0 lf 1020,9 hPa 0,0 l/m 0 min 0 min 51 W/m 8,4 km/h (2 Bft) 100,00 %
15.07.2017 06:40 11,8 C 12,2 C 11,1 C 95 % 0 lf 1020,9 hPa 0,0 l/m 0 min 0 min 47 W/m 6,3 km/h (2 Bft) 93,75 %
15.07.2017 06:42 11,8 C 12,2 C 11,1 C 95 % 0 lf 1021,0 hPa 0,0 l/m 0 min 0 min 43 W/m 6,3 km/h (2 Bft) 97,87 %
15.07.2017 06:44 11,8 C 12,2 C 11,1 C 95 % 0 lf 1021,0 hPa 0,0 l/m 0 min 0 min 40 W/m 6,3 km/h (2 Bft) 100,00 %
15.07.2017 06:46 11,9 C 12,2 C 11,1 C 95 % 0 lf 1020,9 hPa 0,0 l/m 0 min 0 min 40 W/m 6,3 km/h (2 Bft) 100,00 %
15.07.2017 06:48 11,9 C 12,2 C 11,1 C 95 % 0 lf 1020,8 hPa 0,0 l/m 0 min 0 min 52 W/m 8,4 km/h (2 Bft) 100,00 %
15.07.2017 06:50 11,8 C 12,2 C 10,6 C 95 % 0 lf 1020,8 hPa 0,0 l/m 0 min 0 min 39 W/m 10,5 km/h (2 Bft) 97,87 %
15.07.2017 06:52 11,9 C 12,2 C 10,6 C 95 % 0 lf 1020,8 hPa 0,0 l/m 0 min 0 min 39 W/m 8,4 km/h (2 Bft) 97,87 %
15.07.2017 06:54 11,9 C 12,2 C 10,6 C 95 % 0 lf 1020,7 hPa 0,0 l/m 0 min 0 min 40 W/m 12,6 km/h (3 Bft) 97,87 %
15.07.2017 06:56 11,8 C 12,2 C 10,6 C 95 % 0 lf 1020,7 hPa 0,0 l/m 0 min 0 min 42 W/m 12,6 km/h (3 Bft) 95,74 %
15.07.2017 06:58 11,9 C 12,2 C 10,6 C 95 % 0 lf 1020,8 hPa 0,0 l/m 0 min 0 min 44 W/m 10,5 km/h (2 Bft) 95,74 %
15.07.2017 07:00 11,9 C 12,2 C 10,6 C 95 % 0 lf 1020,9 hPa 0,0 l/m 0 min 0 min 45 W/m 8,4 km/h (2 Bft) 97,83 %
15.07.2017 07:02 11,9 C 12,2 C 10,6 C 95 % 0 lf 1020,9 hPa 0,0 l/m 0 min 0 min 49 W/m 8,4 km/h (2 Bft) 95,74 %
15.07.2017 07:04 11,9 C 12,2 C 10,6 C 95 % 0 lf 1020,9 hPa 0,0 l/m 0 min 0 min 54 W/m 8,4 km/h (2 Bft) 93,62 %
15.07.2017 07:06 11,8 C 12,2 C 10,6 C 95 % 0 lf 1020,9 hPa 0,0 l/m 0 min 0 min 60 W/m 6,3 km/h (2 Bft) 93,62 %
15.07.2017 07:08 11,8 C 12,2 C 10,6 C 95 % 0 lf 1020,9 hPa 0,0 l/m 0 min 0 min 65 W/m 10,5 km/h (2 Bft) 95,74 %
15.07.2017 07:10 11,8 C 12,2 C 10,6 C 95 % 0 lf 1020,9 hPa 0,0 l/m 0 min 0 min 70 W/m 10,5 km/h (2 Bft) 93,48 %
15.07.2017 07:12 11,8 C 12,2 C 10,6 C 95 % 0 lf 1020,9 hPa 0,0 l/m 0 min 0 min 85 W/m 8,4 km/h (2 Bft) 95,74 %
15.07.2017 07:14 11,8 C 12,2 C 10,6 C 95 % 0 lf 1021,0 hPa 0,0 l/m 0 min 0 min 100 W/m 6,3 km/h (2 Bft) 93,62 %
15.07.2017 07:16 11,8 C 12,2 C 11,1 C 95 % 0 lf 1021,1 hPa 0,0 l/m 2 min 0 min 122 W/m 6,3 km/h (2 Bft) 93,62 %
15.07.2017 07:18 11,8 C 12,2 C 11,1 C 95 % 0 lf 1021,0 hPa 0,0 l/m 2 min 0 min 179 W/m 8,4 km/h (2 Bft) 95,74 %
15.07.2017 07:20 11,9 C 12,8 C 11,1 C 95 % 0 lf 1021,1 hPa 0,0 l/m 2 min 0 min 171 W/m 6,3 km/h (2 Bft) 95,74 %
15.07.2017 07:22 11,9 C 12,8 C 11,1 C 95 % 0 lf 1021,0 hPa 0,0 l/m 2 min 0 min 167 W/m 8,4 km/h (2 Bft) 91,30 %
15.07.2017 07:24 11,9 C 12,8 C 11,1 C 95 % 0 lf 1020,9 hPa 0,0 l/m 2 min 0 min 245 W/m 8,4 km/h (2 Bft) 95,74 %
15.07.2017 07:26 11,9 C 12,8 C 11,1 C 95 % 0 lf 1020,9 hPa 0,0 l/m 2 min 0 min 224 W/m 10,5 km/h (2 Bft) 89,36 %
15.07.2017 07:28 11,9 C 12,8 C 11,1 C 95 % 0 lf 1021,0 hPa 0,0 l/m 2 min 0 min 197 W/m 10,5 km/h (2 Bft) 95,74 %
15.07.2017 07:30 12,0 C 12,8 C 11,1 C 95 % 0 lf 1020,9 hPa 0,0 l/m 0 min 0 min 119 W/m 14,6 km/h (3 Bft) 89,36 %
15.07.2017 07:32 12,0 C 12,8 C 11,1 C 95 % 0 lf 1021,0 hPa 0,0 l/m 0 min 0 min 87 W/m 16,7 km/h (3 Bft) 93,62 %
15.07.2017 07:34 12,0 C 12,8 C 11,1 C 95 % 0 lf 1021,0 hPa 0,0 l/m 0 min 0 min 78 W/m 10,5 km/h (2 Bft) 95,74 %
15.07.2017 07:36 12,1 C 12,8 C 11,1 C 95 % 0 lf 1021,1 hPa 0,0 l/m 0 min 0 min 83 W/m 10,5 km/h (2 Bft) 91,30 %
15.07.2017 07:38 12,1 C 12,8 C 11,1 C 95 % 0 lf 1021,1 hPa 0,0 l/m 0 min 0 min 82 W/m 6,3 km/h (2 Bft) 91,49 %
15.07.2017 07:40 12,1 C 12,8 C 11,1 C 95 % 0 lf 1021,0 hPa 0,0 l/m 0 min 0 min 74 W/m 8,4 km/h (2 Bft) 93,62 %
15.07.2017 07:42 12,1 C 12,8 C 11,1 C 95 % 0 lf 1021,0 hPa 0,0 l/m 0 min 0 min 115 W/m 10,5 km/h (2 Bft) 93,62 %
15.07.2017 07:44 12,1 C 12,8 C 11,7 C 95 % 0 lf 1021,1 hPa 0,0 l/m 2 min 0 min 171 W/m 6,3 km/h (2 Bft) 93,62 %
15.07.2017 07:46 12,1 C 12,8 C 11,7 C 95 % 0 lf 1021,1 hPa 0,0 l/m 2 min 0 min 168 W/m 6,3 km/h (2 Bft) 93,48 %
15.07.2017 07:48 12,1 C 13,3 C 11,7 C 94 % 0 lf 1021,1 hPa 0,0 l/m 2 min 0 min 244 W/m 8,4 km/h (2 Bft) 93,62 %
15.07.2017 07:50 12,2 C 13,3 C 11,7 C 95 % 0 lf 1021,1 hPa 0,0 l/m 2 min 0 min 192 W/m 8,4 km/h (2 Bft) 91,49 %
15.07.2017 07:52 12,2 C 13,3 C 11,7 C 95 % 0 lf 1021,1 hPa 0,0 l/m 2 min 0 min 164 W/m 10,5 km/h (2 Bft) 91,49 %
15.07.2017 07:54 12,2 C 13,3 C 11,7 C 95 % 0 lf 1021,1 hPa 0,0 l/m 2 min 0 min 182 W/m 8,4 km/h (2 Bft) 91,49 %
15.07.2017 07:56 12,2 C 13,3 C 11,7 C 95 % 0 lf 1021,1 hPa 0,0 l/m 0 min 0 min 121 W/m 12,6 km/h (3 Bft) 93,62 %
15.07.2017 07:58 12,3 C 13,3 C 11,7 C 95 % 0 lf 1021,1 hPa 0,0 l/m 2 min 0 min 181 W/m 12,6 km/h (3 Bft) 95,65 %
15.07.2017 08:00 12,3 C 13,3 C 12,2 C 95 % 0 lf 1021,2 hPa 0,0 l/m 2 min 0 min 288 W/m 8,4 km/h (2 Bft) 95,74 %
15.07.2017 08:03 12,4 C 13,9 C 12,2 C 95 % 0 lf 1021,2 hPa 0,0 l/m 3 min 0 min 224 W/m 6,3 km/h (2 Bft) 93,90 %
15.07.2017 08:04 12,4 C 13,9 C 12,2 C 95 % 0 lf 1021,2 hPa 0,0 l/m 1 min 0 min 244 W/m 8,4 km/h (2 Bft) 83,33 %
15.07.2017 08:06 12,4 C 13,9 C 12,8 C 95 % 0 lf 1021,2 hPa 0,0 l/m 2 min 0 min 388 W/m 8,4 km/h (2 Bft) 95,74 %
15.07.2017 08:08 12,5 C 14,4 C 12,8 C 95 % 0 lf 1021,1 hPa 0,0 l/m 2 min 0 min 403 W/m 8,4 km/h (2 Bft) 93,62 %
15.07.2017 08:10 12,6 C 14,4 C 12,8 C 95 % 0 lf 1021,2 hPa 0,0 l/m 2 min 0 min 405 W/m 8,4 km/h (2 Bft) 91,30 %
15.07.2017 08:12 12,7 C 15,0 C 12,8 C 95 % 0 lf 1021,2 hPa 0,0 l/m 2 min 0 min 358 W/m 6,3 km/h (2 Bft) 95,74 %
15.07.2017 08:14 12,7 C 15,0 C 12,8 C 95 % 0 lf 1021,3 hPa 0,0 l/m 2 min 0 min 357 W/m 12,6 km/h (3 Bft) 95,74 %
15.07.2017 08:16 12,8 C 15,0 C 12,8 C 95 % 0 lf 1021,2 hPa 0,0 l/m 2 min 0 min 183 W/m 8,4 km/h (2 Bft) 93,62 %
15.07.2017 08:18 12,9 C 15,0 C 12,8 C 95 % 0 lf 1021,2 hPa 0,0 l/m 2 min 0 min 192 W/m 6,3 km/h (2 Bft) 93,62 %
15.07.2017 08:20 12,9 C 15,0 C 12,8 C 95 % 0 lf 1021,3 hPa 0,0 l/m 2 min 0 min 258 W/m 8,4 km/h (2 Bft) 93,62 %
15.07.2017 08:22 13,0 C 15,0 C 12,8 C 95 % 0 lf 1021,3 hPa 0,0 l/m 2 min 0 min 405 W/m 12,6 km/h (3 Bft) 93,48 %
15.07.2017 08:24 13,1 C 15,6 C 12,8 C 95 % 0 lf 1021,3 hPa 0,0 l/m 2 min 0 min 299 W/m 10,5 km/h (2 Bft) 95,74 %
15.07.2017 08:26 13,1 C 15,6 C 12,8 C 95 % 0 lf 1021,2 hPa 0,0 l/m 2 min 0 min 234 W/m 12,6 km/h (3 Bft) 93,62 %
15.07.2017 08:28 13,1 C 15,6 C 12,8 C 95 % 0 lf 1021,2 hPa 0,0 l/m 2 min 0 min 213 W/m 8,4 km/h (2 Bft) 93,62 %
15.07.2017 08:30 13,2 C 16,1 C 12,8 C 95 % 0 lf 1021,2 hPa 0,0 l/m 2 min 0 min 290 W/m 8,4 km/h (2 Bft) 95,74 %
15.07.2017 08:32 13,2 C 16,1 C 12,8 C 95 % 0 lf 1021,3 hPa 0,0 l/m 2 min 0 min 317 W/m 8,4 km/h (2 Bft) 95,65 %
15.07.2017 08:34 13,3 C 16,1 C 13,3 C 95 % 0 lf 1021,3 hPa 0,0 l/m 2 min 0 min 409 W/m 10,5 km/h (2 Bft) 100,00 %
15.07.2017 08:36 13,4 C 17,8 C 13,3 C 95 % 0 lf 1021,2 hPa 0,0 l/m 2 min 0 min 429 W/m 12,6 km/h (3 Bft) 100,00 %
15.07.2017 08:38 13,5 C 20,6 C 13,3 C 94 % 0 lf 1021,3 hPa 0,0 l/m 2 min 0 min 429 W/m 10,5 km/h (2 Bft) 97,87 %
15.07.2017 08:40 13,6 C 22,2 C 13,3 C 94 % 0 lf 1021,2 hPa 0,0 l/m 2 min 0 min 432 W/m 10,5 km/h (2 Bft) 100,00 %
15.07.2017 08:42 13,7 C 23,9 C 13,3 C 94 % 0 lf 1021,3 hPa 0,0 l/m 2 min 0 min 436 W/m 10,5 km/h (2 Bft) 97,87 %
15.07.2017 08:44 13,8 C 24,4 C 13,9 C 94 % 0 lf 1021,4 hPa 0,0 l/m 2 min 0 min 439 W/m 8,4 km/h (2 Bft) 100,00 %
15.07.2017 08:46 13,9 C 25,0 C 13,9 C 94 % 0 lf 1021,4 hPa 0,0 l/m 2 min 0 min 446 W/m 12,6 km/h (3 Bft) 95,74 %
15.07.2017 08:48 14,0 C 25,6 C 13,9 C 94 % 0 lf 1021,3 hPa 0,0 l/m 2 min 0 min 452 W/m 10,5 km/h (2 Bft) 100,00 %
15.07.2017 08:50 14,2 C 26,1 C 13,9 C 94 % 0 lf 1021,4 hPa 0,0 l/m 2 min 0 min 459 W/m 10,5 km/h (2 Bft) 100,00 %
15.07.2017 08:52 14,2 C 26,1 C 13,9 C 93 % 0 lf 1021,3 hPa 0,0 l/m 2 min 0 min 468 W/m 12,6 km/h (3 Bft) 100,00 %
15.07.2017 08:54 14,4 C 26,1 C 13,9 C 93 % 0 lf 1021,4 hPa 0,0 l/m 2 min 0 min 480 W/m 14,6 km/h (3 Bft) 100,00 %
15.07.2017 08:56 14,5 C 26,1 C 13,9 C 92 % 0 lf 1021,5 hPa 0,0 l/m 2 min 0 min 498 W/m 10,5 km/h (2 Bft) 100,00 %
15.07.2017 08:58 14,6 C 27,8 C 14,4 C 92 % 0 lf 1021,5 hPa 0,0 l/m 2 min 0 min 526 W/m 10,5 km/h (2 Bft) 100,00 %
15.07.2017 09:00 14,7 C 27,8 C 15,0 C 91 % 0 lf 1021,5 hPa 0,0 l/m 2 min 0 min 562 W/m 10,5 km/h (2 Bft) 97,87 %
15.07.2017 09:02 14,9 C 26,1 C 15,0 C 90 % 0 lf 1021,6 hPa 0,0 l/m 2 min 0 min 568 W/m 12,6 km/h (3 Bft) 95,74 %
15.07.2017 09:04 15,1 C 23,9 C 15,0 C 90 % 0 lf 1021,6 hPa 0,0 l/m 2 min 0 min 527 W/m 10,5 km/h (2 Bft) 100,00 %
15.07.2017 09:06 15,2 C 22,8 C 15,6 C 89 % 0 lf 1021,7 hPa 0,0 l/m 2 min 0 min 279 W/m 16,7 km/h (3 Bft) 100,00 %
15.07.2017 09:08 15,3 C 22,2 C 15,6 C 88 % 0 lf 1021,7 hPa 0,0 l/m 2 min 0 min 245 W/m 10,5 km/h (2 Bft) 100,00 %
15.07.2017 09:10 15,4 C 21,7 C 16,1 C 87 % 0 lf 1021,7 hPa 0,0 l/m 2 min 0 min 267 W/m 8,4 km/h (2 Bft) 100,00 %
15.07.2017 09:12 15,6 C 21,1 C 16,1 C 87 % 0 lf 1021,7 hPa 0,0 l/m 2 min 0 min 274 W/m 8,4 km/h (2 Bft) 97,87 %
15.07.2017 09:14 15,7 C 21,1 C 16,1 C 86 % 0 lf 1021,6 hPa 0,0 l/m 2 min 0 min 252 W/m 10,5 km/h (2 Bft) 97,87 %
15.07.2017 09:16 15,8 C 21,1 C 16,1 C 86 % 0 lf 1021,6 hPa 0,0 l/m 2 min 0 min 293 W/m 8,4 km/h (2 Bft) 100,00 %
15.07.2017 09:18 15,9 C 23,3 C 16,1 C 85 % 0 lf 1021,6 hPa 0,0 l/m 2 min 0 min 507 W/m 8,4 km/h (2 Bft) 100,00 %
15.07.2017 09:20 16,0 C 25,0 C 16,7 C 85 % 0 lf 1021,6 hPa 0,0 l/m 2 min 0 min 638 W/m 8,4 km/h (2 Bft) 100,00 %
15.07.2017 09:22 16,1 C 27,2 C 16,7 C 85 % 0 lf 1021,7 hPa 0,0 l/m 2 min 0 min 685 W/m 8,4 km/h (2 Bft) 100,00 %
15.07.2017 09:24 16,3 C 27,8 C 16,7 C 84 % 0 lf 1021,7 hPa 0,0 l/m 2 min 0 min 654 W/m 8,4 km/h (2 Bft) 100,00 %
15.07.2017 09:26 16,4 C 27,8 C 16,7 C 84 % 0 lf 1021,6 hPa 0,0 l/m 2 min 0 min 517 W/m 6,3 km/h (2 Bft) 100,00 %
15.07.2017 09:28 16,6 C 27,2 C 16,7 C 83 % 0 lf 1021,7 hPa 0,0 l/m 2 min 0 min 466 W/m 14,6 km/h (3 Bft) 100,00 %
15.07.2017 09:30 16,7 C 28,3 C 16,7 C 83 % 0 lf 1021,7 hPa 0,0 l/m 2 min 0 min 574 W/m 10,5 km/h (2 Bft) 100,00 %
15.07.2017 09:32 16,8 C 27,2 C 16,7 C 82 % 0 lf 1021,8 hPa 0,0 l/m 2 min 0 min 633 W/m 14,6 km/h (3 Bft) 100,00 %
15.07.2017 09:34 16,9 C 24,4 C 16,7 C 81 % 0 lf 1021,7 hPa 0,0 l/m 2 min 0 min 336 W/m 8,4 km/h (2 Bft) 100,00 %
15.07.2017 09:36 17,0 C 24,4 C 16,7 C 80 % 0 lf 1021,8 hPa 0,0 l/m 0 min 0 min 128 W/m 14,6 km/h (3 Bft) 97,87 %
15.07.2017 09:38 17,1 C 25,6 C 18,3 C 80 % 0 lf 1021,8 hPa 0,0 l/m 2 min 0 min 612 W/m 12,6 km/h (3 Bft) 100,00 %
15.07.2017 09:40 17,2 C 26,7 C 20,6 C 80 % 0 lf 1021,7 hPa 0,0 l/m 2 min 0 min 691 W/m 16,7 km/h (3 Bft) 100,00 %
15.07.2017 09:42 17,4 C 28,3 C 22,2 C 80 % 0 lf 1021,8 hPa 0,0 l/m 2 min 0 min 703 W/m 16,7 km/h (3 Bft) 97,87 %
15.07.2017 09:44 17,5 C 26,7 C 21,1 C 79 % 0 lf 1021,7 hPa 0,0 l/m 2 min 0 min 659 W/m 16,7 km/h (3 Bft) 97,83 %
15.07.2017 09:46 17,5 C 25,0 C 19,4 C 77 % 0 lf 1021,8 hPa 0,0 l/m 0 min 0 min 178 W/m 16,7 km/h (3 Bft) 100,00 %
15.07.2017 09:48 17,5 C 26,1 C 20,6 C 76 % 0 lf 1021,7 hPa 0,0 l/m 2 min 0 min 651 W/m 12,6 km/h (3 Bft) 100,00 %
15.07.2017 09:50 17,5 C 26,7 C 21,1 C 76 % 0 lf 1021,7 hPa 0,0 l/m 2 min 0 min 759 W/m 10,5 km/h (2 Bft) 97,87 %
15.07.2017 09:52 17,6 C 29,4 C 22,8 C 76 % 0 lf 1021,7 hPa 0,0 l/m 2 min 0 min 779 W/m 10,5 km/h (2 Bft) 97,87 %
15.07.2017 09:54 17,6 C 27,8 C 21,7 C 76 % 0 lf 1021,7 hPa 0,0 l/m 2 min 0 min 784 W/m 14,6 km/h (3 Bft) 95,74 %
15.07.2017 09:56 17,7 C 26,7 C 22,2 C 76 % 0 lf 1021,7 hPa 0,0 l/m 2 min 0 min 784 W/m 10,5 km/h (2 Bft) 100,00 %
15.07.2017 09:58 17,8 C 28,3 C 22,8 C 76 % 0 lf 1021,7 hPa 0,0 l/m 2 min 0 min 760 W/m 12,6 km/h (3 Bft) 100,00 %
15.07.2017 10:00 17,8 C 30,0 C 23,9 C 76 % 0 lf 1021,7 hPa 0,0 l/m 2 min 0 min 770 W/m 14,6 km/h (3 Bft) 97,87 %
15.07.2017 10:02 17,8 C 30,0 C 23,9 C 75 % 0 lf 1021,7 hPa 0,0 l/m 2 min 0 min 783 W/m 14,6 km/h (3 Bft) 97,87 %
15.07.2017 10:04 17,9 C 29,4 C 23,9 C 74 % 0 lf 1021,7 hPa 0,0 l/m 2 min 0 min 811 W/m 16,7 km/h (3 Bft) 100,00 %
15.07.2017 10:06 17,9 C 26,1 C 21,7 C 74 % 0 lf 1021,8 hPa 0,0 l/m 2 min 0 min 652 W/m 18,8 km/h (3 Bft) 97,83 %
15.07.2017 10:08 17,9 C 25,0 C 20,6 C 73 % 0 lf 1021,8 hPa 0,0 l/m 2 min 0 min 802 W/m 14,6 km/h (3 Bft) 97,87 %
15.07.2017 10:10 18,0 C 26,1 C 21,1 C 73 % 0 lf 1021,8 hPa 0,0 l/m 2 min 0 min 389 W/m 12,6 km/h (3 Bft) 91,49 %
15.07.2017 10:12 18,1 C 27,2 C 22,2 C 74 % 0 lf 1021,8 hPa 0,0 l/m 2 min 0 min 696 W/m 10,5 km/h (2 Bft) 95,74 %
15.07.2017 10:14 18,2 C 26,7 C 22,2 C 74 % 0 lf 1021,8 hPa 0,0 l/m 2 min 0 min 696 W/m 18,8 km/h (3 Bft) 95,74 %
15.07.2017 10:16 18,3 C 27,2 C 23,3 C 75 % 0 lf 1021,8 hPa 0,0 l/m 2 min 0 min 696 W/m 16,7 km/h (3 Bft) 89,36 %
15.07.2017 10:18 18,4 C 27,2 C 23,3 C 74 % 0 lf 1021,8 hPa 0,0 l/m 2 min 0 min 696 W/m 16,7 km/h (3 Bft) 95,65 %
15.07.2017 10:20 18,4 C 27,8 C 23,3 C 72 % 0 lf 1021,9 hPa 0,0 l/m 2 min 0 min 768 W/m 18,8 km/h (3 Bft) 93,62 %
15.07.2017 10:22 18,5 C 29,4 C 23,3 C 71 % 0 lf 1021,8 hPa 0,0 l/m 2 min 0 min 745 W/m 14,6 km/h (3 Bft) 89,36 %
15.07.2017 10:24 18,6 C 29,4 C 25,0 C 72 % 0 lf 1021,8 hPa 0,0 l/m 2 min 0 min 817 W/m 16,7 km/h (3 Bft) 91,49 %
15.07.2017 10:26 18,7 C 28,3 C 24,4 C 73 % 0 lf 1021,8 hPa 0,0 l/m 2 min 0 min 849 W/m 16,7 km/h (3 Bft) 91,49 %
15.07.2017 10:28 18,8 C 29,4 C 24,4 C 71 % 0 lf 1021,8 hPa 0,0 l/m 2 min 0 min 826 W/m 12,6 km/h (3 Bft) 91,49 %
15.07.2017 10:30 18,8 C 30,0 C 24,4 C 70 % 0 lf 1021,8 hPa 0,0 l/m 2 min 0 min 752 W/m 14,6 km/h (3 Bft) 91,30 %
15.07.2017 10:32 18,9 C 30,6 C 24,4 C 70 % 0 lf 1021,9 hPa 0,0 l/m 2 min 0 min 836 W/m 12,6 km/h (3 Bft) 87,23 %
15.07.2017 10:34 19,0 C 30,0 C 25,0 C 71 % 0 lf 1021,9 hPa 0,0 l/m 2 min 0 min 870 W/m 10,5 km/h (2 Bft) 89,36 %
15.07.2017 10:36 19,1 C 30,0 C 24,4 C 70 % 0 lf 1021,9 hPa 0,0 l/m 2 min 0 min 786 W/m 10,5 km/h (2 Bft) 93,62 %
15.07.2017 10:38 19,2 C 30,6 C 25,0 C 71 % 0 lf 1021,9 hPa 0,0 l/m 2 min 0 min 832 W/m 12,6 km/h (3 Bft) 91,49 %
15.07.2017 10:40 19,4 C 31,7 C 25,6 C 69 % 0 lf 1021,9 hPa 0,0 l/m 2 min 0 min 837 W/m 12,6 km/h (3 Bft) 91,49 %
15.07.2017 10:42 19,5 C 32,2 C 26,1 C 69 % 0 lf 1021,8 hPa 0,0 l/m 2 min 0 min 837 W/m 12,6 km/h (3 Bft) 91,30 %
15.07.2017 10:44 19,6 C 33,3 C 26,7 C 68 % 0 lf 1021,8 hPa 0,0 l/m 2 min 0 min 822 W/m 12,6 km/h (3 Bft) 91,49 %
15.07.2017 10:46 19,7 C 30,0 C 25,6 C 68 % 0 lf 1021,8 hPa 0,0 l/m 2 min 0 min 820 W/m 18,8 km/h (3 Bft) 91,49 %
15.07.2017 10:48 19,7 C 27,2 C 23,3 C 68 % 0 lf 1021,9 hPa 0,0 l/m 2 min 0 min 514 W/m 18,8 km/h (3 Bft) 87,23 %
15.07.2017 10:50 19,7 C 25,0 C 21,7 C 68 % 0 lf 1021,9 hPa 0,0 l/m 0 min 0 min 181 W/m 10,5 km/h (2 Bft) 91,49 %
15.07.2017 10:52 19,6 C 26,7 C 22,2 C 67 % 0 lf 1021,9 hPa 0,0 l/m 2 min 0 min 396 W/m 10,5 km/h (2 Bft) 91,49 %
15.07.2017 10:54 19,7 C 28,9 C 23,9 C 68 % 0 lf 1021,9 hPa 0,0 l/m 2 min 0 min 842 W/m 10,5 km/h (2 Bft) 91,30 %
15.07.2017 10:56 19,7 C 30,0 C 25,6 C 67 % 0 lf 1021,9 hPa 0,0 l/m 2 min 0 min 880 W/m 12,6 km/h (3 Bft) 91,49 %
15.07.2017 10:58 19,8 C 28,9 C 25,0 C 67 % 0 lf 1022,0 hPa 0,0 l/m 2 min 0 min 911 W/m 18,8 km/h (3 Bft) 93,62 %
15.07.2017 11:00 19,9 C 28,9 C 24,4 C 67 % 0 lf 1021,9 hPa 0,0 l/m 2 min 0 min 893 W/m 14,6 km/h (3 Bft) 95,74 %
15.07.2017 11:02 19,9 C 26,7 C 23,3 C 67 % 0 lf 1021,9 hPa 0,0 l/m 2 min 0 min 697 W/m 16,7 km/h (3 Bft) 91,49 %
15.07.2017 11:04 19,9 C 27,8 C 23,3 C 65 % 0 lf 1022,0 hPa 0,0 l/m 0 min 0 min 153 W/m 12,6 km/h (3 Bft) 97,83 %
15.07.2017 11:06 20,0 C 29,4 C 23,9 C 65 % 0 lf 1022,0 hPa 0,0 l/m 2 min 0 min 791 W/m 12,6 km/h (3 Bft) 95,65 %
15.07.2017 11:08 20,1 C 30,0 C 24,4 C 65 % 0 lf 1022,0 hPa 0,0 l/m 2 min 0 min 842 W/m 20,9 km/h (4 Bft) 97,87 %
15.07.2017 11:10 20,1 C 30,6 C 25,0 C 63 % 0 lf 1021,9 hPa 0,0 l/m 2 min 0 min 861 W/m 14,6 km/h (3 Bft) 97,87 %
15.07.2017 11:12 20,1 C 30,0 C 25,0 C 64 % 0 lf 1021,9 hPa 0,0 l/m 2 min 0 min 911 W/m 16,7 km/h (3 Bft) 89,36 %
15.07.2017 11:14 20,2 C 30,0 C 25,6 C 65 % 0 lf 1021,9 hPa 0,0 l/m 2 min 0 min 909 W/m 18,8 km/h (3 Bft) 97,87 %
15.07.2017 11:16 20,3 C 31,1 C 26,7 C 67 % 0 lf 1021,9 hPa 0,0 l/m 2 min 0 min 916 W/m 8,4 km/h (2 Bft) 97,83 %
15.07.2017 11:18 20,3 C 28,3 C 25,0 C 66 % 0 lf 1021,9 hPa 0,0 l/m 2 min 0 min 810 W/m 14,6 km/h (3 Bft) 97,87 %
15.07.2017 11:20 20,4 C 26,1 C 22,8 C 64 % 0 lf 1021,9 hPa 0,0 l/m 0 min 0 min 206 W/m 14,6 km/h (3 Bft) 93,62 %
15.07.2017 11:22 20,3 C 25,0 C 22,2 C 63 % 0 lf 1021,9 hPa 0,0 l/m 0 min 0 min 223 W/m 12,6 km/h (3 Bft) 97,87 %
15.07.2017 11:24 20,3 C 24,4 C 22,8 C 65 % 0 lf 1021,9 hPa 0,0 l/m 0 min 0 min 223 W/m 10,5 km/h (2 Bft) 100,00 %
15.07.2017 11:26 20,3 C 26,1 C 23,3 C 65 % 0 lf 1021,9 hPa 0,0 l/m 0 min 0 min 349 W/m 10,5 km/h (2 Bft) 97,87 %
15.07.2017 11:28 20,4 C 26,7 C 23,9 C 65 % 0 lf 1021,9 hPa 0,0 l/m 2 min 0 min 404 W/m 14,6 km/h (3 Bft) 97,83 %
15.07.2017 11:30 20,4 C 26,7 C 22,2 C 64 % 0 lf 1021,9 hPa 0,0 l/m 0 min 0 min 229 W/m 18,8 km/h (3 Bft) 100,00 %
15.07.2017 11:32 20,4 C 28,3 C 22,2 C 63 % 0 lf 1021,9 hPa 0,0 l/m 2 min 0 min 416 W/m 12,6 km/h (3 Bft) 95,74 %
15.07.2017 11:34 20,4 C 28,3 C 22,2 C 63 % 0 lf 1022,0 hPa 0,0 l/m 2 min 0 min 877 W/m 14,6 km/h (3 Bft) 97,87 %
15.07.2017 11:36 20,3 C 30,0 C 22,2 C 62 % 0 lf 1021,9 hPa 0,0 l/m 2 min 0 min 880 W/m 10,5 km/h (2 Bft) 100,00 %
15.07.2017 11:38 20,3 C 31,7 C 23,3 C 62 % 0 lf 1021,9 hPa 0,0 l/m 2 min 0 min 982 W/m 6,3 km/h (2 Bft) 100,00 %
15.07.2017 11:40 20,4 C 29,4 C 23,3 C 64 % 0 lf 1021,9 hPa 0,0 l/m 2 min 0 min 655 W/m 18,8 km/h (3 Bft) 100,00 %
15.07.2017 11:42 20,4 C 27,2 C 22,8 C 64 % 0 lf 1021,9 hPa 0,0 l/m 0 min 0 min 237 W/m 18,8 km/h (3 Bft) 97,87 %
15.07.2017 11:44 20,4 C 28,9 C 24,4 C 63 % 0 lf 1022,0 hPa 0,0 l/m 0 min 0 min 197 W/m 10,5 km/h (2 Bft) 100,00 %
15.07.2017 11:46 20,5 C 30,0 C 25,6 C 64 % 0 lf 1021,9 hPa 0,0 l/m 2 min 0 min 822 W/m 14,6 km/h (3 Bft) 100,00 %
15.07.2017 11:48 20,6 C 30,6 C 26,1 C 64 % 0 lf 1021,9 hPa 0,0 l/m 2 min 0 min 857 W/m 12,6 km/h (3 Bft) 97,87 %
15.07.2017 11:50 20,7 C 30,0 C 26,7 C 62 % 0 lf 1021,9 hPa 0,0 l/m 2 min 0 min 876 W/m 14,6 km/h (3 Bft) 100,00 %
15.07.2017 11:52 20,8 C 31,7 C 27,2 C 62 % 0 lf 1021,9 hPa 0,0 l/m 2 min 0 min 876 W/m 14,6 km/h (3 Bft) 97,83 %
15.07.2017 11:54 20,9 C 31,7 C 27,2 C 62 % 0 lf 1022,0 hPa 0,0 l/m 2 min 0 min 895 W/m 12,6 km/h (3 Bft) 100,00 %
15.07.2017 11:56 21,0 C 32,2 C 27,8 C 62 % 0 lf 1022,0 hPa 0,0 l/m 2 min 0 min 870 W/m 4,2 km/h (1 Bft) 100,00 %
15.07.2017 11:58 21,1 C 32,8 C 28,3 C 62 % 0 lf 1021,9 hPa 0,0 l/m 2 min 0 min 913 W/m 14,6 km/h (3 Bft) 100,00 %
15.07.2017 12:00 21,2 C 31,7 C 28,3 C 62 % 0 lf 1021,9 hPa 0,0 l/m 2 min 0 min 871 W/m 14,6 km/h (3 Bft) 97,87 %
15.07.2017 12:02 21,3 C 31,7 C 27,8 C 61 % 0 lf 1021,9 hPa 0,0 l/m 2 min 0 min 935 W/m 14,6 km/h (3 Bft) 100,00 %
15.07.2017 12:04 21,4 C 29,4 C 25,6 C 60 % 0 lf 1022,0 hPa 0,0 l/m 2 min 0 min 617 W/m 23,0 km/h (4 Bft) 100,00 %
15.07.2017 12:06 21,4 C 26,7 C 23,9 C 59 % 0 lf 1021,9 hPa 0,0 l/m 0 min 0 min 263 W/m 16,7 km/h (3 Bft) 97,87 %
15.07.2017 12:10 21,3 C 27,8 C 25,0 C 61 % 0 lf 1021,9 hPa 0,0 l/m 4 min 0 min 564 W/m 14,6 km/h (3 Bft) 97,94 %
15.07.2017 12:12 21,3 C 27,2 C 24,4 C 60 % 0 lf 1021,9 hPa 0,0 l/m 2 min 0 min 621 W/m 10,5 km/h (2 Bft) 97,87 %
15.07.2017 12:14 21,3 C 27,2 C 24,4 C 59 % 0 lf 1022,0 hPa 0,0 l/m 0 min 0 min 333 W/m 12,6 km/h (3 Bft) 100,00 %
15.07.2017 12:16 21,2 C 26,1 C 24,4 C 59 % 0 lf 1022,0 hPa 0,0 l/m 2 min 0 min 401 W/m 14,6 km/h (3 Bft) 100,00 %
15.07.2017 12:18 21,2 C 25,6 C 23,9 C 61 % 0 lf 1022,0 hPa 0,0 l/m 0 min 0 min 249 W/m 12,6 km/h (3 Bft) 100,00 %
15.07.2017 12:20 21,2 C 24,4 C 22,8 C 62 % 0 lf 1022,0 hPa 0,0 l/m 0 min 0 min 237 W/m 8,4 km/h (2 Bft) 97,87 %
15.07.2017 12:22 21,2 C 25,0 C 22,8 C 62 % 0 lf 1022,1 hPa 0,0 l/m 0 min 0 min 298 W/m 10,5 km/h (2 Bft) 100,00 %
15.07.2017 12:24 21,2 C 26,7 C 25,0 C 63 % 0 lf 1022,1 hPa 0,0 l/m 2 min 0 min 419 W/m 10,5 km/h (2 Bft) 100,00 %
15.07.2017 12:26 21,2 C 27,2 C 24,4 C 63 % 0 lf 1022,1 hPa 0,0 l/m 2 min 0 min 446 W/m 12,6 km/h (3 Bft) 97,83 %
15.07.2017 12:28 21,2 C 27,2 C 25,0 C 62 % 0 lf 1022,0 hPa 0,0 l/m 2 min 0 min 469 W/m 8,4 km/h (2 Bft) 97,87 %
15.07.2017 12:30 21,3 C 28,3 C 25,6 C 62 % 0 lf 1022,0 hPa 0,0 l/m 2 min 0 min 722 W/m 16,7 km/h (3 Bft) 97,87 %
15.07.2017 12:32 21,4 C 30,0 C 26,7 C 62 % 0 lf 1022,0 hPa 0,0 l/m 2 min 0 min 903 W/m 16,7 km/h (3 Bft) 100,00 %
15.07.2017 12:34 21,5 C 30,6 C 27,2 C 61 % 0 lf 1022,0 hPa 0,0 l/m 2 min 0 min 930 W/m 18,8 km/h (3 Bft) 97,87 %
15.07.2017 12:36 21,6 C 30,6 C 27,2 C 61 % 0 lf 1022,0 hPa 0,0 l/m 2 min 0 min 917 W/m 20,9 km/h (4 Bft) 97,87 %
15.07.2017 12:38 21,7 C 31,1 C 27,2 C 59 % 0 lf 1022,0 hPa 0,0 l/m 2 min 0 min 929 W/m 20,9 km/h (4 Bft) 97,83 %
15.07.2017 12:40 21,8 C 30,6 C 27,8 C 60 % 0 lf 1022,0 hPa 0,0 l/m 2 min 0 min 883 W/m 18,8 km/h (3 Bft) 95,74 %
15.07.2017 12:42 22,0 C 30,6 C 27,2 C 60 % 0 lf 1021,9 hPa 0,0 l/m 2 min 0 min 894 W/m 18,8 km/h (3 Bft) 95,74 %
15.07.2017 12:44 22,1 C 30,6 C 26,7 C 59 % 0 lf 1021,9 hPa 0,0 l/m 2 min 0 min 850 W/m 14,6 km/h (3 Bft) 95,74 %
15.07.2017 12:46 22,2 C 30,6 C 26,1 C 60 % 0 lf 1022,0 hPa 0,0 l/m 2 min 0 min 833 W/m 12,6 km/h (3 Bft) 97,87 %
15.07.2017 12:48 22,3 C 31,1 C 26,1 C 60 % 0 lf 1021,9 hPa 0,0 l/m 2 min 0 min 958 W/m 14,6 km/h (3 Bft) 97,87 %
15.07.2017 12:50 22,5 C 31,1 C 25,6 C 58 % 0 lf 1021,9 hPa 0,0 l/m 2 min 0 min 964 W/m 18,8 km/h (3 Bft) 97,83 %
15.07.2017 12:52 22,6 C 31,1 C 25,6 C 59 % 0 lf 1021,9 hPa 0,0 l/m 2 min 0 min 888 W/m 20,9 km/h (4 Bft) 97,87 %
15.07.2017 12:54 22,7 C 28,9 C 25,0 C 60 % 0 lf 1022,0 hPa 0,0 l/m 2 min 0 min 710 W/m 18,8 km/h (3 Bft) 97,87 %
15.07.2017 12:56 22,6 C 27,2 C 23,9 C 59 % 0 lf 1022,0 hPa 0,0 l/m 0 min 0 min 340 W/m 14,6 km/h (3 Bft) 95,74 %
15.07.2017 12:58 22,4 C 25,0 C 23,3 C 59 % 0 lf 1021,9 hPa 0,0 l/m 0 min 0 min 295 W/m 29,3 km/h (5 Bft) 95,74 %
15.07.2017 13:00 22,2 C 23,9 C 22,2 C 60 % 0 lf 1022,0 hPa 0,0 l/m 0 min 0 min 270 W/m 23,0 km/h (4 Bft) 89,36 %
15.07.2017 13:02 22,1 C 23,3 C 22,2 C 61 % 0 lf 1022,0 hPa 0,0 l/m 0 min 0 min 280 W/m 16,7 km/h (3 Bft) 95,65 %
15.07.2017 13:04 21,8 C 22,8 C 21,7 C 60 % 0 lf 1022,0 hPa 0,0 l/m 0 min 0 min 315 W/m 18,8 km/h (3 Bft) 93,62 %
15.07.2017 13:06 21,7 C 23,3 C 22,2 C 61 % 0 lf 1021,9 hPa 0,0 l/m 0 min 0 min 371 W/m 10,5 km/h (2 Bft) 93,62 %
15.07.2017 13:08 21,6 C 25,0 C 23,9 C 62 % 0 lf 1021,9 hPa 0,0 l/m 0 min 0 min 387 W/m 14,6 km/h (3 Bft) 97,87 %
15.07.2017 13:10 21,6 C 26,7 C 25,0 C 62 % 0 lf 1022,0 hPa 0,0 l/m 2 min 0 min 1071 W/m 16,7 km/h (3 Bft) 91,49 %
15.07.2017 13:12 21,6 C 27,8 C 25,6 C 62 % 0 lf 1021,9 hPa 0,0 l/m 2 min 0 min 808 W/m 14,6 km/h (3 Bft) 97,83 %
15.07.2017 13:14 21,7 C 28,9 C 26,7 C 62 % 0 lf 1021,9 hPa 0,0 l/m 2 min 0 min 874 W/m 23,0 km/h (4 Bft) 95,74 %
15.07.2017 13:16 21,8 C 30,0 C 26,7 C 63 % 0 lf 1021,9 hPa 0,0 l/m 2 min 0 min 901 W/m 12,6 km/h (3 Bft) 97,87 %
15.07.2017 13:18 21,9 C 27,8 C 25,6 C 60 % 0 lf 1021,9 hPa 0,0 l/m 2 min 0 min 949 W/m 14,6 km/h (3 Bft) 93,62 %
15.07.2017 13:20 22,0 C 29,4 C 25,6 C 61 % 0 lf 1022,0 hPa 0,0 l/m 2 min 0 min 932 W/m 12,6 km/h (3 Bft) 97,87 %
15.07.2017 13:22 22,2 C 30,0 C 25,6 C 61 % 0 lf 1022,0 hPa 0,0 l/m 2 min 0 min 937 W/m 12,6 km/h (3 Bft) 91,67 %
15.07.2017 13:24 22,3 C 29,4 C 25,6 C 60 % 0 lf 1022,0 hPa 0,0 l/m 2 min 0 min 818 W/m 16,7 km/h (3 Bft) 93,48 %
15.07.2017 13:26 22,3 C 30,0 C 25,0 C 61 % 0 lf 1022,0 hPa 0,0 l/m 2 min 0 min 564 W/m 23,0 km/h (4 Bft) 93,62 %
15.07.2017 13:28 22,4 C 30,6 C 25,0 C 60 % 0 lf 1022,0 hPa 0,0 l/m 2 min 0 min 921 W/m 12,6 km/h (3 Bft) 93,62 %
15.07.2017 13:30 22,6 C 31,1 C 24,4 C 56 % 0 lf 1022,0 hPa 0,0 l/m 2 min 0 min 1007 W/m 23,0 km/h (4 Bft) 89,36 %
15.07.2017 13:32 22,6 C 31,1 C 25,0 C 59 % 0 lf 1022,0 hPa 0,0 l/m 2 min 0 min 991 W/m 10,5 km/h (2 Bft) 93,62 %
15.07.2017 13:34 22,7 C 31,1 C 25,0 C 59 % 0 lf 1022,0 hPa 0,0 l/m 2 min 0 min 955 W/m 14,6 km/h (3 Bft) 91,49 %
15.07.2017 13:36 22,8 C 31,1 C 25,0 C 57 % 0 lf 1021,9 hPa 0,0 l/m 2 min 0 min 942 W/m 18,8 km/h (3 Bft) 95,65 %
15.07.2017 13:38 22,8 C 31,7 C 24,4 C 57 % 0 lf 1021,9 hPa 0,0 l/m 2 min 0 min 892 W/m 16,7 km/h (3 Bft) 95,74 %
15.07.2017 13:40 22,8 C 31,1 C 24,4 C 57 % 0 lf 1021,9 hPa 0,0 l/m 2 min 0 min 873 W/m 18,8 km/h (3 Bft) 95,74 %
15.07.2017 13:42 22,8 C 29,4 C 23,3 C 55 % 0 lf 1022,0 hPa 0,0 l/m 2 min 0 min 882 W/m 14,6 km/h (3 Bft) 95,74 %
15.07.2017 13:44 22,7 C 30,0 C 23,9 C 56 % 0 lf 1021,9 hPa 0,0 l/m 2 min 0 min 923 W/m 16,7 km/h (3 Bft) 95,74 %
15.07.2017 13:46 22,8 C 31,1 C 25,0 C 58 % 0 lf 1022,0 hPa 0,0 l/m 2 min 0 min 976 W/m 10,5 km/h (2 Bft) 95,74 %
15.07.2017 13:48 22,8 C 30,0 C 25,6 C 59 % 0 lf 1021,8 hPa 0,0 l/m 2 min 0 min 919 W/m 16,7 km/h (3 Bft) 95,65 %
15.07.2017 13:50 22,9 C 31,1 C 26,1 C 60 % 0 lf 1021,9 hPa 0,0 l/m 2 min 0 min 1026 W/m 16,7 km/h (3 Bft) 93,62 %
15.07.2017 13:52 22,9 C 30,6 C 25,6 C 56 % 0 lf 1021,9 hPa 0,0 l/m 2 min 0 min 894 W/m 8,4 km/h (2 Bft) 95,74 %
15.07.2017 13:54 22,9 C 29,4 C 25,0 C 56 % 0 lf 1021,9 hPa 0,0 l/m 2 min 0 min 1113 W/m 12,6 km/h (3 Bft) 95,74 %
15.07.2017 13:56 22,9 C 27,8 C 24,4 C 56 % 0 lf 1021,9 hPa 0,0 l/m 2 min 0 min 730 W/m 8,4 km/h (2 Bft) 93,62 %
15.07.2017 13:58 22,9 C 27,2 C 24,4 C 58 % 0 lf 1021,9 hPa 0,0 l/m 0 min 0 min 319 W/m 8,4 km/h (2 Bft) 95,74 %
15.07.2017 14:00 22,9 C 25,6 C 23,9 C 57 % 0 lf 1021,9 hPa 0,0 l/m 0 min 0 min 325 W/m 10,5 km/h (2 Bft) 93,48 %
15.07.2017 14:02 22,8 C 25,6 C 23,9 C 57 % 0 lf 1022,0 hPa 0,0 l/m 2 min 0 min 465 W/m 14,6 km/h (3 Bft) 91,49 %
15.07.2017 14:04 22,8 C 25,6 C 23,3 C 58 % 0 lf 1022,0 hPa 0,0 l/m 2 min 0 min 487 W/m 10,5 km/h (2 Bft) 93,62 %
15.07.2017 14:06 22,7 C 25,0 C 23,3 C 57 % 0 lf 1022,0 hPa 0,0 l/m 2 min 0 min 420 W/m 18,8 km/h (3 Bft) 95,74 %
15.07.2017 14:08 22,6 C 24,4 C 22,8 C 58 % 0 lf 1021,9 hPa 0,0 l/m 2 min 0 min 445 W/m 12,6 km/h (3 Bft) 91,49 %
15.07.2017 14:10 22,5 C 25,0 C 23,3 C 58 % 0 lf 1022,0 hPa 0,0 l/m 2 min 0 min 489 W/m 12,6 km/h (3 Bft) 95,74 %
15.07.2017 14:12 22,4 C 25,6 C 24,4 C 58 % 0 lf 1022,0 hPa 0,0 l/m 2 min 0 min 522 W/m 20,9 km/h (4 Bft) 95,65 %
15.07.2017 14:14 22,4 C 26,1 C 25,6 C 61 % 0 lf 1021,9 hPa 0,0 l/m 2 min 0 min 528 W/m 10,5 km/h (2 Bft) 93,62 %
15.07.2017 14:16 22,4 C 26,1 C 25,0 C 59 % 0 lf 1022,0 hPa 0,0 l/m 2 min 0 min 614 W/m 16,7 km/h (3 Bft) 93,62 %
15.07.2017 14:18 22,4 C 26,7 C 26,1 C 60 % 0 lf 1022,0 hPa 0,0 l/m 2 min 0 min 850 W/m 12,6 km/h (3 Bft) 95,74 %
15.07.2017 14:20 22,4 C 27,8 C 27,2 C 60 % 0 lf 1022,0 hPa 0,0 l/m 2 min 0 min 912 W/m 16,7 km/h (3 Bft) 97,87 %
15.07.2017 14:22 22,4 C 27,8 C 27,2 C 60 % 0 lf 1021,9 hPa 0,0 l/m 2 min 0 min 864 W/m 16,7 km/h (3 Bft) 95,74 %
15.07.2017 14:24 22,4 C 26,1 C 25,6 C 58 % 0 lf 1022,0 hPa 0,0 l/m 2 min 0 min 585 W/m 16,7 km/h (3 Bft) 95,65 %
15.07.2017 14:26 22,4 C 26,1 C 25,0 C 58 % 0 lf 1021,9 hPa 0,0 l/m 2 min 0 min 539 W/m 12,6 km/h (3 Bft) 100,00 %
15.07.2017 14:28 22,4 C 26,7 C 26,1 C 58 % 0 lf 1021,9 hPa 0,0 l/m 2 min 0 min 578 W/m 10,5 km/h (2 Bft) 97,87 %
15.07.2017 14:30 22,4 C 26,1 C 25,6 C 58 % 0 lf 1021,9 hPa 0,0 l/m 2 min 0 min 572 W/m 14,6 km/h (3 Bft) 97,87 %
15.07.2017 14:32 22,4 C 25,6 C 25,6 C 57 % 0 lf 1021,9 hPa 0,0 l/m 2 min 0 min 553 W/m 16,7 km/h (3 Bft) 100,00 %
15.07.2017 14:34 22,4 C 25,6 C 25,0 C 58 % 0 lf 1022,0 hPa 0,0 l/m 2 min 0 min 540 W/m 14,6 km/h (3 Bft) 97,87 %
15.07.2017 14:36 22,4 C 25,6 C 24,4 C 58 % 0 lf 1021,9 hPa 0,0 l/m 2 min 0 min 528 W/m 14,6 km/h (3 Bft) 97,83 %
15.07.2017 14:38 22,4 C 25,0 C 24,4 C 57 % 0 lf 1022,0 hPa 0,0 l/m 2 min 0 min 572 W/m 16,7 km/h (3 Bft) 97,87 %
15.07.2017 14:40 22,4 C 26,1 C 25,0 C 57 % 0 lf 1021,9 hPa 0,0 l/m 2 min 0 min 590 W/m 18,8 km/h (3 Bft) 100,00 %
15.07.2017 14:42 22,4 C 27,2 C 26,7 C 57 % 0 lf 1021,8 hPa 0,0 l/m 2 min 0 min 784 W/m 6,3 km/h (2 Bft) 93,62 %
15.07.2017 14:44 22,4 C 27,2 C 26,7 C 58 % 0 lf 1021,8 hPa 0,0 l/m 2 min 0 min 935 W/m 18,8 km/h (3 Bft) 100,00 %
15.07.2017 14:46 22,5 C 26,1 C 26,1 C 58 % 0 lf 1021,8 hPa 0,0 l/m 2 min 0 min 562 W/m 14,6 km/h (3 Bft) 97,83 %
15.07.2017 14:48 22,5 C 25,6 C 25,6 C 58 % 0 lf 1021,9 hPa 0,0 l/m 2 min 0 min 510 W/m 18,8 km/h (3 Bft) 97,87 %
15.07.2017 14:50 22,5 C 25,6 C 25,6 C 59 % 0 lf 1021,9 hPa 0,0 l/m 2 min 0 min 559 W/m 12,6 km/h (3 Bft) 95,74 %
15.07.2017 14:52 22,5 C 26,1 C 26,1 C 58 % 0 lf 1021,9 hPa 0,0 l/m 2 min 0 min 595 W/m 12,6 km/h (3 Bft) 97,87 %
15.07.2017 14:54 22,5 C 26,7 C 25,6 C 59 % 0 lf 1021,9 hPa 0,0 l/m 2 min 0 min 556 W/m 6,3 km/h (2 Bft) 95,74 %
15.07.2017 14:56 22,6 C 26,1 C 25,6 C 58 % 0 lf 1021,9 hPa 0,0 l/m 2 min 0 min 540 W/m 10,5 km/h (2 Bft) 95,74 %
15.07.2017 14:58 22,6 C 27,2 C 26,7 C 58 % 0 lf 1021,9 hPa 0,0 l/m 2 min 0 min 591 W/m 10,5 km/h (2 Bft) 95,74 %
15.07.2017 15:00 22,6 C 27,8 C 26,7 C 58 % 0 lf 1021,8 hPa 0,0 l/m 2 min 0 min 675 W/m 12,6 km/h (3 Bft) 95,65 %
15.07.2017 15:02 22,7 C 27,2 C 25,6 C 56 % 0 lf 1021,8 hPa 0,0 l/m 2 min 0 min 663 W/m 14,6 km/h (3 Bft) 97,87 %
15.07.2017 15:04 22,6 C 27,8 C 25,6 C 56 % 0 lf 1021,7 hPa 0,0 l/m 2 min 0 min 738 W/m 10,5 km/h (2 Bft) 97,87 %
15.07.2017 15:06 22,6 C 28,3 C 26,7 C 58 % 0 lf 1021,8 hPa 0,0 l/m 2 min 0 min 876 W/m 12,6 km/h (3 Bft) 97,87 %
15.07.2017 15:08 22,7 C 28,3 C 27,8 C 57 % 0 lf 1021,8 hPa 0,0 l/m 2 min 0 min 888 W/m 12,6 km/h (3 Bft) 97,87 %
15.07.2017 15:10 22,7 C 27,8 C 28,3 C 58 % 0 lf 1021,8 hPa 0,0 l/m 2 min 0 min 970 W/m 10,5 km/h (2 Bft) 97,83 %
15.07.2017 15:12 22,8 C 26,7 C 27,8 C 56 % 0 lf 1021,8 hPa 0,0 l/m 2 min 0 min 943 W/m 14,6 km/h (3 Bft) 95,74 %
15.07.2017 15:14 22,8 C 27,8 C 27,8 C 57 % 0 lf 1021,9 hPa 0,0 l/m 2 min 0 min 833 W/m 14,6 km/h (3 Bft) 97,87 %
15.07.2017 15:16 22,8 C 26,7 C 26,1 C 56 % 0 lf 1021,8 hPa 0,0 l/m 2 min 0 min 571 W/m 10,5 km/h (2 Bft) 95,74 %
15.07.2017 15:18 22,8 C 26,1 C 25,0 C 55 % 0 lf 1021,8 hPa 0,0 l/m 2 min 0 min 533 W/m 8,4 km/h (2 Bft) 97,87 %
15.07.2017 15:20 22,8 C 25,6 C 25,0 C 57 % 0 lf 1021,9 hPa 0,0 l/m 2 min 0 min 509 W/m 14,6 km/h (3 Bft) 97,87 %
15.07.2017 15:22 22,7 C 25,0 C 24,4 C 59 % 0 lf 1021,9 hPa 0,0 l/m 2 min 0 min 491 W/m 14,6 km/h (3 Bft) 100,00 %
15.07.2017 15:24 22,7 C 24,4 C 23,9 C 58 % 0 lf 1021,9 hPa 0,0 l/m 2 min 0 min 464 W/m 12,6 km/h (3 Bft) 93,62 %
15.07.2017 15:26 22,6 C 24,4 C 23,9 C 57 % 0 lf 1021,8 hPa 0,0 l/m 2 min 0 min 447 W/m 8,4 km/h (2 Bft) 97,87 %
15.07.2017 15:28 22,6 C 23,9 C 23,3 C 58 % 0 lf 1021,9 hPa 0,0 l/m 2 min 0 min 461 W/m 10,5 km/h (2 Bft) 97,87 %
15.07.2017 15:30 22,5 C 23,9 C 23,9 C 58 % 0 lf 1021,9 hPa 0,0 l/m 2 min 0 min 514 W/m 10,5 km/h (2 Bft) 95,74 %
15.07.2017 15:32 22,5 C 24,4 C 23,9 C 59 % 0 lf 1021,9 hPa 0,0 l/m 2 min 0 min 524 W/m 10,5 km/h (2 Bft) 95,74 %
15.07.2017 15:34 22,4 C 24,4 C 23,9 C 57 % 0 lf 1021,9 hPa 0,0 l/m 2 min 0 min 499 W/m 16,7 km/h (3 Bft) 93,48 %
15.07.2017 15:36 22,4 C 24,4 C 23,9 C 57 % 0 lf 1021,9 hPa 0,0 l/m 2 min 0 min 459 W/m 12,6 km/h (3 Bft) 97,87 %
15.07.2017 15:38 22,4 C 24,4 C 23,3 C 59 % 0 lf 1021,9 hPa 0,0 l/m 2 min 0 min 451 W/m 8,4 km/h (2 Bft) 97,87 %
15.07.2017 15:40 22,4 C 24,4 C 23,9 C 59 % 0 lf 1021,9 hPa 0,0 l/m 2 min 0 min 458 W/m 6,3 km/h (2 Bft) 97,87 %
15.07.2017 15:42 22,4 C 24,4 C 23,3 C 59 % 0 lf 1021,9 hPa 0,0 l/m 2 min 0 min 453 W/m 6,3 km/h (2 Bft) 93,62 %
15.07.2017 15:44 22,4 C 25,0 C 23,3 C 59 % 0 lf 1021,9 hPa 0,0 l/m 2 min 0 min 466 W/m 6,3 km/h (2 Bft) 97,87 %
15.07.2017 15:46 22,4 C 24,4 C 23,3 C 57 % 0 lf 1021,9 hPa 0,0 l/m 2 min 0 min 478 W/m 12,6 km/h (3 Bft) 97,83 %
15.07.2017 15:48 22,4 C 25,0 C 23,9 C 58 % 0 lf 1021,9 hPa 0,0 l/m 2 min 0 min 493 W/m 12,6 km/h (3 Bft) 97,87 %
15.07.2017 15:50 22,4 C 24,4 C 23,9 C 58 % 0 lf 1021,9 hPa 0,0 l/m 2 min 0 min 473 W/m 10,5 km/h (2 Bft) 97,87 %
15.07.2017 15:53 22,3 C 24,4 C 23,9 C 59 % 0 lf 1021,9 hPa 0,0 l/m 3 min 0 min 443 W/m 12,6 km/h (3 Bft) 94,29 %
15.07.2017 15:54 22,3 C 24,4 C 23,3 C 60 % 0 lf 1021,9 hPa 0,0 l/m 1 min 0 min 430 W/m 12,6 km/h (3 Bft) 100,00 %
15.07.2017 15:56 22,3 C 23,9 C 23,3 C 58 % 0 lf 1022,0 hPa 0,0 l/m 2 min 0 min 425 W/m 10,5 km/h (2 Bft) 97,83 %
15.07.2017 15:58 22,3 C 23,9 C 23,3 C 59 % 0 lf 1022,0 hPa 0,0 l/m 2 min 0 min 436 W/m 12,6 km/h (3 Bft) 97,87 %
15.07.2017 16:00 22,2 C 23,9 C 23,3 C 59 % 0 lf 1021,9 hPa 0,0 l/m 2 min 0 min 458 W/m 6,3 km/h (2 Bft) 95,74 %
15.07.2017 16:02 22,2 C 24,4 C 23,3 C 60 % 0 lf 1021,9 hPa 0,0 l/m 2 min 0 min 469 W/m 10,5 km/h (2 Bft) 97,87 %
15.07.2017 16:04 22,2 C 23,9 C 23,3 C 60 % 0 lf 1021,9 hPa 0,0 l/m 2 min 0 min 496 W/m 8,4 km/h (2 Bft) 95,74 %
15.07.2017 16:06 22,2 C 25,0 C 23,9 C 60 % 0 lf 1021,9 hPa 0,0 l/m 2 min 0 min 530 W/m 8,4 km/h (2 Bft) 93,62 %
15.07.2017 16:08 22,2 C 25,0 C 23,9 C 60 % 0 lf 1021,8 hPa 0,0 l/m 2 min 0 min 570 W/m 12,6 km/h (3 Bft) 95,65 %
15.07.2017 16:10 22,2 C 24,4 C 23,9 C 58 % 0 lf 1021,8 hPa 0,0 l/m 2 min 0 min 559 W/m 10,5 km/h (2 Bft) 100,00 %
15.07.2017 16:12 22,2 C 23,9 C 23,3 C 58 % 0 lf 1021,8 hPa 0,0 l/m 0 min 0 min 308 W/m 10,5 km/h (2 Bft) 100,00 %
15.07.2017 16:14 22,2 C 23,9 C 23,3 C 60 % 0 lf 1021,8 hPa 0,0 l/m 0 min 0 min 282 W/m 4,2 km/h (1 Bft) 100,00 %
15.07.2017 16:16 22,2 C 24,4 C 23,3 C 60 % 0 lf 1021,8 hPa 0,0 l/m 0 min 0 min 275 W/m 12,6 km/h (3 Bft) 100,00 %
15.07.2017 16:18 22,2 C 25,0 C 23,9 C 61 % 0 lf 1021,8 hPa 0,0 l/m 2 min 0 min 354 W/m 8,4 km/h (2 Bft) 97,87 %
15.07.2017 16:20 22,2 C 25,0 C 24,4 C 60 % 0 lf 1021,8 hPa 0,0 l/m 2 min 0 min 600 W/m 10,5 km/h (2 Bft) 100,00 %
15.07.2017 16:22 22,2 C 25,0 C 24,4 C 60 % 0 lf 1021,8 hPa 0,0 l/m 2 min 0 min 587 W/m 8,4 km/h (2 Bft) 100,00 %
15.07.2017 16:24 22,2 C 25,0 C 24,4 C 60 % 0 lf 1021,8 hPa 0,0 l/m 2 min 0 min 596 W/m 10,5 km/h (2 Bft) 95,74 %
15.07.2017 16:26 22,3 C 25,0 C 24,4 C 60 % 0 lf 1021,8 hPa 0,0 l/m 2 min 0 min 613 W/m 12,6 km/h (3 Bft) 100,00 %
15.07.2017 16:28 22,3 C 25,0 C 24,4 C 60 % 0 lf 1021,9 hPa 0,0 l/m 2 min 0 min 637 W/m 6,3 km/h (2 Bft) 97,87 %
15.07.2017 16:30 22,3 C 25,0 C 24,4 C 60 % 0 lf 1021,9 hPa 0,0 l/m 2 min 0 min 624 W/m 12,6 km/h (3 Bft) 97,87 %
15.07.2017 16:32 22,3 C 25,0 C 23,9 C 59 % 0 lf 1021,9 hPa 0,0 l/m 2 min 0 min 625 W/m 10,5 km/h (2 Bft) 100,00 %
15.07.2017 16:34 22,4 C 25,6 C 23,9 C 60 % 0 lf 1021,9 hPa 0,0 l/m 2 min 0 min 643 W/m 10,5 km/h (2 Bft) 95,65 %
15.07.2017 16:36 22,4 C 26,1 C 25,0 C 60 % 0 lf 1021,9 hPa 0,0 l/m 2 min 0 min 663 W/m 10,5 km/h (2 Bft) 95,74 %
15.07.2017 16:38 22,4 C 25,6 C 26,7 C 58 % 0 lf 1021,8 hPa 0,0 l/m 2 min 0 min 778 W/m 4,2 km/h (1 Bft) 95,74 %
15.07.2017 16:40 22,4 C 24,4 C 26,7 C 56 % 0 lf 1021,9 hPa 0,0 l/m 2 min 0 min 917 W/m 4,2 km/h (1 Bft) 97,87 %
15.07.2017 16:42 22,4 C 24,4 C 26,1 C 56 % 0 lf 1021,8 hPa 0,0 l/m 2 min 0 min 763 W/m 14,6 km/h (3 Bft) 95,74 %
15.07.2017 16:44 22,4 C 24,4 C 25,6 C 58 % 0 lf 1021,8 hPa 0,0 l/m 2 min 0 min 673 W/m 14,6 km/h (3 Bft) 93,48 %
15.07.2017 16:46 22,5 C 24,4 C 25,0 C 58 % 0 lf 1021,8 hPa 0,0 l/m 2 min 0 min 643 W/m 10,5 km/h (2 Bft) 95,74 %
15.07.2017 16:48 22,5 C 24,4 C 24,4 C 58 % 0 lf 1021,9 hPa 0,0 l/m 2 min 0 min 637 W/m 6,3 km/h (2 Bft) 91,49 %
15.07.2017 16:50 22,5 C 25,0 C 24,4 C 57 % 0 lf 1021,8 hPa 0,0 l/m 2 min 0 min 626 W/m 8,4 km/h (2 Bft) 95,74 %
15.07.2017 16:52 22,5 C 24,4 C 23,9 C 57 % 0 lf 1021,9 hPa 0,0 l/m 2 min 0 min 609 W/m 8,4 km/h (2 Bft) 93,62 %
15.07.2017 16:54 22,5 C 24,4 C 23,3 C 58 % 0 lf 1021,9 hPa 0,0 l/m 2 min 0 min 588 W/m 4,2 km/h (1 Bft) 93,62 %
15.07.2017 16:56 22,5 C 24,4 C 23,3 C 58 % 0 lf 1022,0 hPa 0,0 l/m 2 min 0 min 583 W/m 6,3 km/h (2 Bft) 93,48 %
15.07.2017 16:58 22,5 C 24,4 C 23,3 C 58 % 0 lf 1022,0 hPa 0,0 l/m 2 min 0 min 580 W/m 10,5 km/h (2 Bft) 91,49 %
15.07.2017 17:00 22,5 C 23,9 C 22,8 C 57 % 0 lf 1022,0 hPa 0,0 l/m 2 min 0 min 584 W/m 12,6 km/h (3 Bft) 89,36 %
15.07.2017 17:02 22,4 C 23,3 C 22,2 C 57 % 0 lf 1021,9 hPa 0,0 l/m 2 min 0 min 587 W/m 10,5 km/h (2 Bft) 93,62 %
15.07.2017 17:04 22,4 C 23,3 C 22,2 C 57 % 0 lf 1021,9 hPa 0,0 l/m 2 min 0 min 590 W/m 12,6 km/h (3 Bft) 93,62 %
15.07.2017 17:06 22,4 C 23,3 C 22,8 C 58 % 0 lf 1021,9 hPa 0,0 l/m 2 min 0 min 593 W/m 6,3 km/h (2 Bft) 93,62 %
15.07.2017 17:08 22,3 C 23,9 C 22,8 C 58 % 0 lf 1021,9 hPa 0,0 l/m 2 min 0 min 599 W/m 4,2 km/h (1 Bft) 95,65 %
15.07.2017 17:10 22,3 C 23,9 C 22,8 C 59 % 0 lf 1021,8 hPa 0,0 l/m 2 min 0 min 629 W/m 10,5 km/h (2 Bft) 93,62 %
15.07.2017 17:12 22,3 C 23,9 C 23,3 C 59 % 0 lf 1021,7 hPa 0,0 l/m 2 min 0 min 620 W/m 10,5 km/h (2 Bft) 93,62 %
15.07.2017 17:14 22,3 C 23,9 C 22,8 C 60 % 0 lf 1021,7 hPa 0,0 l/m 2 min 0 min 598 W/m 10,5 km/h (2 Bft) 89,36 %
15.07.2017 17:16 22,3 C 23,3 C 22,8 C 59 % 0 lf 1021,7 hPa 0,0 l/m 2 min 0 min 574 W/m 12,6 km/h (3 Bft) 93,62 %
15.07.2017 17:18 22,2 C 22,8 C 22,8 C 59 % 0 lf 1021,7 hPa 0,0 l/m 2 min 0 min 549 W/m 12,6 km/h (3 Bft) 91,49 %
15.07.2017 17:20 22,2 C 22,8 C 22,2 C 60 % 0 lf 1021,7 hPa 0,0 l/m 2 min 0 min 578 W/m 10,5 km/h (2 Bft) 93,48 %
15.07.2017 17:22 22,2 C 22,8 C 22,2 C 59 % 0 lf 1021,7 hPa 0,0 l/m 2 min 0 min 332 W/m 10,5 km/h (2 Bft) 91,49 %
15.07.2017 17:24 22,1 C 22,8 C 21,7 C 60 % 0 lf 1021,8 hPa 0,0 l/m 0 min 0 min 164 W/m 8,4 km/h (2 Bft) 93,62 %
15.07.2017 17:26 22,1 C 22,8 C 21,7 C 60 % 0 lf 1021,7 hPa 0,0 l/m 0 min 0 min 166 W/m 6,3 km/h (2 Bft) 89,36 %
15.07.2017 17:28 22,1 C 22,8 C 21,7 C 60 % 0 lf 1021,7 hPa 0,0 l/m 0 min 0 min 180 W/m 10,5 km/h (2 Bft) 95,74 %
15.07.2017 17:30 22,0 C 22,8 C 22,2 C 60 % 0 lf 1021,7 hPa 0,0 l/m 0 min 0 min 184 W/m 10,5 km/h (2 Bft) 95,74 %
15.07.2017 17:32 22,0 C 22,8 C 22,2 C 60 % 0 lf 1021,7 hPa 0,0 l/m 0 min 0 min 225 W/m 8,4 km/h (2 Bft) 93,48 %
15.07.2017 17:34 22,0 C 23,3 C 22,2 C 62 % 0 lf 1021,6 hPa 0,0 l/m 2 min 0 min 385 W/m 10,5 km/h (2 Bft) 100,00 %
15.07.2017 17:36 21,9 C 23,3 C 22,2 C 61 % 0 lf 1021,6 hPa 0,0 l/m 2 min 0 min 470 W/m 8,4 km/h (2 Bft) 95,74 %
15.07.2017 17:38 21,9 C 23,3 C 22,2 C 62 % 0 lf 1021,6 hPa 0,0 l/m 2 min 0 min 476 W/m 8,4 km/h (2 Bft) 100,00 %
15.07.2017 17:40 21,9 C 23,3 C 22,8 C 61 % 0 lf 1021,6 hPa 0,0 l/m 2 min 0 min 468 W/m 10,5 km/h (2 Bft) 97,87 %
15.07.2017 17:42 21,9 C 23,3 C 22,8 C 62 % 0 lf 1021,6 hPa 0,0 l/m 2 min 0 min 476 W/m 10,5 km/h (2 Bft) 95,65 %
15.07.2017 17:44 21,9 C 23,3 C 22,8 C 61 % 0 lf 1021,6 hPa 0,0 l/m 2 min 0 min 473 W/m 8,4 km/h (2 Bft) 100,00 %
15.07.2017 17:46 21,9 C 23,3 C 22,2 C 61 % 0 lf 1021,6 hPa 0,0 l/m 2 min 0 min 457 W/m 8,4 km/h (2 Bft) 97,87 %
15.07.2017 17:48 21,9 C 23,3 C 22,2 C 62 % 0 lf 1021,6 hPa 0,0 l/m 2 min 0 min 446 W/m 10,5 km/h (2 Bft) 100,00 %
15.07.2017 17:50 21,9 C 23,3 C 22,2 C 61 % 0 lf 1021,6 hPa 0,0 l/m 2 min 0 min 429 W/m 6,3 km/h (2 Bft) 97,87 %
15.07.2017 17:52 21,9 C 23,3 C 22,2 C 62 % 0 lf 1021,5 hPa 0,0 l/m 2 min 0 min 418 W/m 10,5 km/h (2 Bft) 100,00 %
15.07.2017 17:54 21,9 C 23,3 C 22,2 C 61 % 0 lf 1021,6 hPa 0,0 l/m 2 min 0 min 408 W/m 12,6 km/h (3 Bft) 100,00 %
15.07.2017 17:56 21,9 C 23,3 C 22,2 C 61 % 0 lf 1021,5 hPa 0,0 l/m 2 min 0 min 400 W/m 8,4 km/h (2 Bft) 97,87 %
15.07.2017 17:58 21,9 C 23,3 C 21,7 C 60 % 0 lf 1021,5 hPa 0,0 l/m 2 min 0 min 384 W/m 10,5 km/h (2 Bft) 95,74 %
15.07.2017 18:00 21,8 C 23,3 C 21,7 C 61 % 0 lf 1021,4 hPa 0,0 l/m 2 min 0 min 416 W/m 8,4 km/h (2 Bft) 93,62 %
15.07.2017 18:02 21,8 C 22,8 C 21,7 C 61 % 0 lf 1021,4 hPa 0,0 l/m 2 min 0 min 415 W/m 6,3 km/h (2 Bft) 97,87 %
15.07.2017 18:04 21,8 C 22,8 C 21,7 C 61 % 0 lf 1021,4 hPa 0,0 l/m 2 min 0 min 418 W/m 8,4 km/h (2 Bft) 97,87 %
15.07.2017 18:06 21,8 C 22,8 C 21,7 C 62 % 0 lf 1021,4 hPa 0,0 l/m 2 min 0 min 407 W/m 6,3 km/h (2 Bft) 97,83 %
15.07.2017 18:08 21,8 C 22,2 C 21,1 C 62 % 0 lf 1021,4 hPa 0,0 l/m 2 min 0 min 392 W/m 6,3 km/h (2 Bft) 95,74 %
15.07.2017 18:12 21,7 C 22,2 C 21,1 C 61 % 0 lf 1021,4 hPa 0,0 l/m 4 min 0 min 384 W/m 10,5 km/h (2 Bft) 97,78 %
15.07.2017 18:14 21,7 C 22,2 C 20,6 C 62 % 0 lf 1021,4 hPa 0,0 l/m 2 min 0 min 375 W/m 6,3 km/h (2 Bft) 100,00 %
15.07.2017 18:16 21,7 C 21,7 C 20,6 C 61 % 0 lf 1021,4 hPa 0,0 l/m 2 min 0 min 368 W/m 6,3 km/h (2 Bft) 97,87 %
15.07.2017 18:18 21,7 C 21,1 C 20,6 C 61 % 0 lf 1021,4 hPa 0,0 l/m 2 min 0 min 363 W/m 6,3 km/h (2 Bft) 93,62 %
15.07.2017 18:20 21,7 C 21,1 C 20,6 C 61 % 0 lf 1021,4 hPa 0,0 l/m 2 min 0 min 358 W/m 8,4 km/h (2 Bft) 95,65 %
15.07.2017 18:22 21,6 C 21,1 C 20,0 C 62 % 0 lf 1021,4 hPa 0,0 l/m 2 min 0 min 346 W/m 4,2 km/h (1 Bft) 95,74 %
15.07.2017 18:24 21,6 C 21,1 C 20,0 C 63 % 0 lf 1021,4 hPa 0,0 l/m 2 min 0 min 327 W/m 6,3 km/h (2 Bft) 97,87 %
15.07.2017 18:26 21,6 C 21,1 C 20,0 C 63 % 0 lf 1021,4 hPa 0,0 l/m 0 min 0 min 74 W/m 6,3 km/h (2 Bft) 97,87 %
15.07.2017 18:28 21,5 C 21,1 C 20,0 C 63 % 0 lf 1021,4 hPa 0,0 l/m 0 min 0 min 69 W/m 8,4 km/h (2 Bft) 97,87 %
15.07.2017 18:30 21,5 C 21,1 C 20,0 C 63 % 0 lf 1021,4 hPa 0,0 l/m 0 min 0 min 65 W/m 6,3 km/h (2 Bft) 97,83 %
15.07.2017 18:32 21,4 C 21,1 C 20,0 C 63 % 0 lf 1021,4 hPa 0,0 l/m 0 min 0 min 64 W/m 6,3 km/h (2 Bft) 95,74 %
15.07.2017 18:34 21,4 C 21,1 C 20,0 C 63 % 0 lf 1021,4 hPa 0,0 l/m 0 min 0 min 66 W/m 4,2 km/h (1 Bft) 95,74 %
15.07.2017 18:36 21,4 C 21,1 C 20,0 C 63 % 0 lf 1021,3 hPa 0,0 l/m 0 min 0 min 71 W/m 8,4 km/h (2 Bft) 95,74 %
15.07.2017 18:38 21,3 C 21,1 C 20,0 C 63 % 0 lf 1021,4 hPa 0,0 l/m 0 min 0 min 82 W/m 8,4 km/h (2 Bft) 93,62 %
15.07.2017 18:40 21,3 C 21,1 C 20,0 C 62 % 0 lf 1021,4 hPa 0,0 l/m 0 min 0 min 101 W/m 6,3 km/h (2 Bft) 97,87 %
15.07.2017 18:42 21,3 C 21,1 C 20,0 C 62 % 0 lf 1021,4 hPa 0,0 l/m 0 min 0 min 115 W/m 8,4 km/h (2 Bft) 97,83 %
15.07.2017 18:44 21,2 C 21,1 C 20,6 C 63 % 0 lf 1021,4 hPa 0,0 l/m 0 min 0 min 112 W/m 8,4 km/h (2 Bft) 97,87 %
15.07.2017 18:46 21,2 C 21,1 C 20,6 C 63 % 0 lf 1021,4 hPa 0,0 l/m 0 min 0 min 112 W/m 6,3 km/h (2 Bft) 100,00 %
15.07.2017 18:48 21,2 C 21,1 C 20,6 C 63 % 0 lf 1021,4 hPa 0,0 l/m 0 min 0 min 105 W/m 6,3 km/h (2 Bft) 100,00 %
15.07.2017 18:50 21,2 C 21,7 C 20,6 C 64 % 0 lf 1021,4 hPa 0,0 l/m 0 min 0 min 104 W/m 6,3 km/h (2 Bft) 95,74 %
15.07.2017 18:52 21,1 C 21,7 C 20,6 C 64 % 0 lf 1021,4 hPa 0,0 l/m 0 min 0 min 98 W/m 6,3 km/h (2 Bft) 95,74 %
15.07.2017 18:54 21,1 C 21,1 C 20,6 C 64 % 0 lf 1021,4 hPa 0,0 l/m 0 min 0 min 92 W/m 6,3 km/h (2 Bft) 100,00 %
15.07.2017 18:56 21,1 C 21,7 C 20,6 C 65 % 0 lf 1021,4 hPa 0,0 l/m 0 min 0 min 89 W/m 6,3 km/h (2 Bft) 97,87 %
15.07.2017 18:58 21,1 C 21,7 C 20,6 C 64 % 0 lf 1021,5 hPa 0,0 l/m 0 min 0 min 90 W/m 6,3 km/h (2 Bft) 97,87 %
15.07.2017 19:00 21,1 C 21,7 C 20,6 C 64 % 0 lf 1021,5 hPa 0,0 l/m 0 min 0 min 90 W/m 6,3 km/h (2 Bft) 95,74 %
15.07.2017 19:02 21,1 C 21,1 C 20,6 C 64 % 0 lf 1021,5 hPa 0,0 l/m 0 min 0 min 86 W/m 8,4 km/h (2 Bft) 97,87 %
15.07.2017 19:04 21,1 C 21,7 C 20,6 C 65 % 0 lf 1021,5 hPa 0,0 l/m 0 min 0 min 80 W/m 4,2 km/h (1 Bft) 97,87 %
15.07.2017 19:06 21,1 C 21,7 C 20,6 C 65 % 0 lf 1021,5 hPa 0,0 l/m 0 min 0 min 75 W/m 6,3 km/h (2 Bft) 95,65 %
15.07.2017 19:08 21,0 C 21,1 C 20,6 C 64 % 0 lf 1021,5 hPa 0,0 l/m 0 min 0 min 71 W/m 8,4 km/h (2 Bft) 97,87 %
15.07.2017 19:10 21,0 C 21,7 C 20,6 C 65 % 0 lf 1021,5 hPa 0,0 l/m 0 min 0 min 67 W/m 2,1 km/h (1 Bft) 95,74 %
15.07.2017 19:12 21,0 C 21,1 C 20,0 C 65 % 0 lf 1021,5 hPa 0,0 l/m 0 min 0 min 70 W/m 4,2 km/h (1 Bft) 97,87 %
15.07.2017 19:14 21,0 C 21,1 C 20,0 C 65 % 0 lf 1021,6 hPa 0,0 l/m 0 min 0 min 72 W/m 6,3 km/h (2 Bft) 97,87 %
15.07.2017 19:16 21,0 C 21,1 C 20,0 C 65 % 0 lf 1021,6 hPa 0,0 l/m 0 min 0 min 74 W/m 6,3 km/h (2 Bft) 97,87 %
15.07.2017 19:18 21,0 C 21,7 C 20,6 C 65 % 0 lf 1021,6 hPa 0,0 l/m 0 min 0 min 71 W/m 4,2 km/h (1 Bft) 95,65 %
15.07.2017 19:20 21,0 C 21,1 C 20,0 C 65 % 0 lf 1021,6 hPa 0,0 l/m 0 min 0 min 66 W/m 4,2 km/h (1 Bft) 97,87 %
15.07.2017 19:22 21,0 C 21,1 C 20,0 C 66 % 0 lf 1021,6 hPa 0,0 l/m 0 min 0 min 60 W/m 4,2 km/h (1 Bft) 95,74 %
15.07.2017 19:24 21,0 C 21,1 C 20,0 C 65 % 0 lf 1021,5 hPa 0,0 l/m 0 min 0 min 55 W/m 2,1 km/h (1 Bft) 97,87 %
15.07.2017 19:26 21,0 C 21,1 C 20,0 C 65 % 0 lf 1021,5 hPa 0,0 l/m 0 min 0 min 58 W/m 0,0 km/h (0 Bft) 95,74 %
15.07.2017 19:28 21,0 C 21,1 C 20,0 C 65 % 0 lf 1021,5 hPa 0,0 l/m 0 min 0 min 63 W/m 0,0 km/h (0 Bft) 97,14 %
15.07.2017 19:30 21,0 C 21,1 C 20,0 C 65 % 0 lf 1021,5 hPa 0,0 l/m 0 min 0 min 67 W/m 0,0 km/h (0 Bft) 96,72 %
15.07.2017 19:32 21,0 C 21,1 C 20,0 C 65 % 0 lf 1021,5 hPa 0,0 l/m 0 min 0 min 68 W/m 0,0 km/h (0 Bft) 97,87 %
15.07.2017 19:34 21,0 C 21,1 C 20,0 C 65 % 0 lf 1021,5 hPa 0,0 l/m 0 min 0 min 63 W/m 0,0 km/h (0 Bft) 97,87 %
15.07.2017 19:36 20,9 C 21,1 C 20,0 C 65 % 0 lf 1021,5 hPa 0,0 l/m 0 min 0 min 56 W/m 0,0 km/h (0 Bft) 100,00 %
15.07.2017 19:38 20,9 C 21,1 C 20,0 C 66 % 0 lf 1021,6 hPa 0,0 l/m 0 min 0 min 53 W/m 0,0 km/h (0 Bft) 97,87 %
15.07.2017 19:40 20,9 C 21,1 C 20,0 C 66 % 0 lf 1021,6 hPa 0,0 l/m 0 min 0 min 49 W/m 0,0 km/h (0 Bft) 100,00 %
15.07.2017 19:42 20,9 C 20,6 C 19,4 C 66 % 0 lf 1021,6 hPa 0,0 l/m 0 min 0 min 49 W/m 0,0 km/h (0 Bft) 95,74 %
15.07.2017 19:44 20,9 C 20,6 C 19,4 C 66 % 0 lf 1021,6 hPa 0,0 l/m 0 min 0 min 47 W/m 0,0 km/h (0 Bft) 97,87 %
15.07.2017 19:46 20,9 C 20,6 C 19,4 C 65 % 0 lf 1021,6 hPa 0,0 l/m 0 min 0 min 45 W/m 0,0 km/h (0 Bft) 100,00 %
15.07.2017 19:48 20,9 C 20,6 C 19,4 C 65 % 0 lf 1021,6 hPa 0,0 l/m 0 min 0 min 44 W/m 0,0 km/h (0 Bft) 97,87 %
15.07.2017 19:50 20,9 C 20,6 C 19,4 C 65 % 0 lf 1021,6 hPa 0,0 l/m 0 min 0 min 41 W/m 0,0 km/h (0 Bft) 95,74 %
15.07.2017 19:52 20,9 C 20,6 C 19,4 C 65 % 0 lf 1021,6 hPa 0,0 l/m 0 min 0 min 40 W/m 0,0 km/h (0 Bft) 95,65 %
15.07.2017 19:54 20,9 C 20,6 C 19,4 C 65 % 0 lf 1021,6 hPa 0,0 l/m 0 min 0 min 39 W/m 0,0 km/h (0 Bft) 95,74 %
15.07.2017 19:56 20,9 C 20,6 C 19,4 C 65 % 0 lf 1021,7 hPa 0,0 l/m 0 min 0 min 36 W/m 0,0 km/h (0 Bft) 91,49 %
15.07.2017 19:58 20,8 C 20,6 C 19,4 C 65 % 0 lf 1021,7 hPa 0,0 l/m 0 min 0 min 34 W/m 0,0 km/h (0 Bft) 97,87 %
15.07.2017 20:00 20,8 C 20,6 C 19,4 C 65 % 0 lf 1021,8 hPa 0,0 l/m 0 min 0 min 32 W/m 0,0 km/h (0 Bft) 91,49 %
15.07.2017 20:02 20,8 C 20,6 C 19,4 C 65 % 0 lf 1021,7 hPa 0,0 l/m 0 min 0 min 32 W/m 0,0 km/h (0 Bft) 93,62 %
15.07.2017 20:04 20,8 C 20,6 C 18,9 C 66 % 0 lf 1021,8 hPa 0,0 l/m 0 min 0 min 32 W/m 0,0 km/h (0 Bft) 95,65 %
15.07.2017 20:06 20,8 C 20,6 C 18,9 C 66 % 0 lf 1021,8 hPa 0,0 l/m 0 min 0 min 33 W/m 0,0 km/h (0 Bft) 89,36 %
15.07.2017 20:08 20,8 C 20,0 C 18,9 C 66 % 0 lf 1021,9 hPa 0,0 l/m 0 min 0 min 36 W/m 0,0 km/h (0 Bft) 95,74 %
15.07.2017 20:10 20,8 C 20,0 C 18,9 C 66 % 0 lf 1021,8 hPa 0,0 l/m 0 min 0 min 39 W/m 0,0 km/h (0 Bft) 95,74 %
15.07.2017 20:12 20,8 C 20,0 C 18,9 C 66 % 0 lf 1021,8 hPa 0,0 l/m 0 min 0 min 43 W/m 0,0 km/h (0 Bft) 91,49 %
15.07.2017 20:14 20,8 C 20,6 C 18,9 C 66 % 0 lf 1021,8 hPa 0,0 l/m 0 min 0 min 46 W/m 0,0 km/h (0 Bft) 95,65 %
15.07.2017 20:16 20,7 C 20,6 C 18,9 C 66 % 0 lf 1021,8 hPa 0,0 l/m 0 min 0 min 46 W/m 0,0 km/h (0 Bft) 95,74 %
15.07.2017 20:18 20,7 C 20,6 C 18,9 C 67 % 0 lf 1021,8 hPa 0,0 l/m 0 min 0 min 46 W/m 6,3 km/h (2 Bft) 95,74 %
15.07.2017 20:20 20,7 C 20,0 C 19,4 C 66 % 0 lf 1021,7 hPa 0,0 l/m 0 min 0 min 44 W/m 4,2 km/h (1 Bft) 95,74 %
15.07.2017 20:22 20,7 C 20,6 C 19,4 C 66 % 0 lf 1021,8 hPa 0,0 l/m 0 min 0 min 42 W/m 2,1 km/h (1 Bft) 95,74 %
15.07.2017 20:24 20,7 C 20,0 C 18,9 C 67 % 0 lf 1021,8 hPa 0,0 l/m 0 min 0 min 39 W/m 4,2 km/h (1 Bft) 95,74 %
15.07.2017 20:26 20,7 C 20,0 C 18,9 C 67 % 0 lf 1021,7 hPa 0,0 l/m 0 min 0 min 35 W/m 2,1 km/h (1 Bft) 95,65 %
15.07.2017 20:28 20,7 C 20,0 C 18,9 C 67 % 0 lf 1021,7 hPa 0,0 l/m 0 min 0 min 32 W/m 2,1 km/h (1 Bft) 95,74 %
15.07.2017 20:30 20,6 C 20,0 C 18,9 C 67 % 0 lf 1021,7 hPa 0,0 l/m 0 min 0 min 30 W/m 0,0 km/h (0 Bft) 93,62 %
15.07.2017 20:32 20,6 C 20,0 C 18,9 C 67 % 0 lf 1021,7 hPa 0,0 l/m 0 min 0 min 28 W/m 4,2 km/h (1 Bft) 95,74 %
15.07.2017 20:34 20,6 C 20,0 C 18,9 C 67 % 0 lf 1021,7 hPa 0,0 l/m 0 min 0 min 26 W/m 4,2 km/h (1 Bft) 93,62 %
15.07.2017 20:36 20,6 C 20,0 C 18,9 C 67 % 0 lf 1021,7 hPa 0,0 l/m 0 min 0 min 26 W/m 4,2 km/h (1 Bft) 91,49 %
15.07.2017 20:38 20,6 C 20,0 C 18,9 C 67 % 0 lf 1021,7 hPa 0,0 l/m 0 min 0 min 26 W/m 2,1 km/h (1 Bft) 91,30 %
15.07.2017 20:40 20,6 C 20,0 C 18,9 C 67 % 0 lf 1021,7 hPa 0,0 l/m 0 min 0 min 25 W/m 0,0 km/h (0 Bft) 89,36 %
15.07.2017 20:42 20,6 C 20,0 C 18,9 C 67 % 0 lf 1021,7 hPa 0,0 l/m 0 min 0 min 25 W/m 0,0 km/h (0 Bft) 93,62 %
15.07.2017 20:44 20,6 C 20,0 C 18,3 C 68 % 0 lf 1021,7 hPa 0,0 l/m 0 min 0 min 25 W/m 0,0 km/h (0 Bft) 93,62 %
15.07.2017 20:46 20,5 C 20,0 C 18,3 C 68 % 0 lf 1021,7 hPa 0,0 l/m 0 min 0 min 25 W/m 0,0 km/h (0 Bft) 93,62 %
15.07.2017 20:48 20,5 C 20,0 C 18,3 C 68 % 0 lf 1021,6 hPa 0,0 l/m 0 min 0 min 25 W/m 2,1 km/h (1 Bft) 91,49 %
15.07.2017 20:50 20,5 C 20,0 C 18,3 C 68 % 0 lf 1021,7 hPa 0,0 l/m 0 min 0 min 25 W/m 2,1 km/h (1 Bft) 91,30 %
15.07.2017 20:52 20,5 C 20,0 C 18,3 C 68 % 0 lf 1021,6 hPa 0,0 l/m 0 min 0 min 26 W/m 2,1 km/h (1 Bft) 95,74 %
15.07.2017 20:54 20,4 C 20,0 C 18,3 C 68 % 0 lf 1021,6 hPa 0,0 l/m 0 min 0 min 26 W/m 2,1 km/h (1 Bft) 95,74 %
15.07.2017 20:56 20,4 C 20,0 C 18,3 C 68 % 0 lf 1021,6 hPa 0,0 l/m 0 min 0 min 26 W/m 4,2 km/h (1 Bft) 89,36 %
15.07.2017 20:58 20,4 C 20,0 C 18,3 C 68 % 0 lf 1021,6 hPa 0,0 l/m 0 min 0 min 26 W/m 4,2 km/h (1 Bft) 97,87 %
15.07.2017 21:00 20,4 C 20,0 C 18,3 C 68 % 0 lf 1021,6 hPa 0,0 l/m 0 min 0 min 25 W/m 4,2 km/h (1 Bft) 95,74 %
15.07.2017 21:02 20,4 C 19,4 C 18,3 C 68 % 0 lf 1021,5 hPa 0,0 l/m 0 min 0 min 22 W/m 4,2 km/h (1 Bft) 95,74 %
15.07.2017 21:04 20,4 C 19,4 C 18,3 C 69 % 0 lf 1021,5 hPa 0,0 l/m 0 min 0 min 21 W/m 4,2 km/h (1 Bft) 93,62 %
15.07.2017 21:06 20,4 C 19,4 C 18,3 C 69 % 0 lf 1021,5 hPa 0,0 l/m 0 min 0 min 19 W/m 4,2 km/h (1 Bft) 91,49 %
15.07.2017 21:08 20,4 C 19,4 C 18,3 C 70 % 0 lf 1021,5 hPa 0,0 l/m 0 min 0 min 19 W/m 4,2 km/h (1 Bft) 93,62 %
15.07.2017 21:10 20,3 C 19,4 C 18,3 C 70 % 0 lf 1021,5 hPa 0,0 l/m 0 min 0 min 19 W/m 4,2 km/h (1 Bft) 93,62 %
15.07.2017 21:12 20,3 C 19,4 C 18,3 C 70 % 0 lf 1021,5 hPa 0,0 l/m 0 min 0 min 18 W/m 4,2 km/h (1 Bft) 93,62 %
15.07.2017 21:14 20,3 C 19,4 C 18,3 C 70 % 0 lf 1021,5 hPa 0,0 l/m 0 min 0 min 16 W/m 4,2 km/h (1 Bft) 95,65 %
15.07.2017 21:16 20,3 C 19,4 C 18,3 C 70 % 0 lf 1021,5 hPa 0,0 l/m 0 min 0 min 16 W/m 4,2 km/h (1 Bft) 95,74 %
15.07.2017 21:18 20,3 C 19,4 C 18,3 C 71 % 0 lf 1021,5 hPa 0,0 l/m 0 min 0 min 16 W/m 4,2 km/h (1 Bft) 91,49 %
15.07.2017 21:20 20,3 C 19,4 C 18,3 C 71 % 0 lf 1021,5 hPa 0,0 l/m 0 min 0 min 18 W/m 2,1 km/h (1 Bft) 93,62 %
15.07.2017 21:22 20,2 C 19,4 C 18,3 C 71 % 0 lf 1021,5 hPa 0,0 l/m 0 min 0 min 18 W/m 2,1 km/h (1 Bft) 95,74 %
15.07.2017 21:24 20,2 C 19,4 C 17,8 C 71 % 0 lf 1021,5 hPa 0,0 l/m 0 min 0 min 18 W/m 6,3 km/h (2 Bft) 97,83 %
15.07.2017 21:26 20,2 C 19,4 C 17,8 C 71 % 0 lf 1021,6 hPa 0,0 l/m 0 min 0 min 18 W/m 6,3 km/h (2 Bft) 95,74 %
15.07.2017 21:28 20,2 C 19,4 C 17,8 C 71 % 0 lf 1021,5 hPa 0,0 l/m 0 min 0 min 18 W/m 2,1 km/h (1 Bft) 95,74 %
15.07.2017 21:30 20,2 C 19,4 C 17,8 C 71 % 0 lf 1021,6 hPa 0,0 l/m 0 min 0 min 19 W/m 4,2 km/h (1 Bft) 97,87 %
15.07.2017 21:32 20,1 C 19,4 C 17,8 C 71 % 0 lf 1021,6 hPa 0,0 l/m 0 min 0 min 16 W/m 4,2 km/h (1 Bft) 93,62 %
15.07.2017 21:34 20,1 C 19,4 C 17,8 C 71 % 0 lf 1021,6 hPa 0,0 l/m 0 min 0 min 13 W/m 4,2 km/h (1 Bft) 97,87 %
15.07.2017 21:36 20,1 C 19,4 C 17,8 C 71 % 0 lf 1021,6 hPa 0,0 l/m 0 min 0 min 11 W/m 4,2 km/h (1 Bft) 97,83 %
15.07.2017 21:38 20,0 C 19,4 C 17,8 C 71 % 0 lf 1021,6 hPa 0,0 l/m 0 min 0 min 7 W/m 4,2 km/h (1 Bft) 97,87 %
15.07.2017 21:40 20,0 C 19,4 C 17,8 C 71 % 0 lf 1021,6 hPa 0,0 l/m 0 min 0 min 5 W/m 6,3 km/h (2 Bft) 97,87 %
15.07.2017 21:42 20,0 C 18,9 C 17,8 C 72 % 0 lf 1021,7 hPa 0,0 l/m 0 min 0 min 5 W/m 6,3 km/h (2 Bft) 100,00 %
15.07.2017 21:44 19,9 C 18,9 C 17,2 C 72 % 0 lf 1021,8 hPa 0,0 l/m 0 min 0 min 1 W/m 6,3 km/h (2 Bft) 100,00 %
15.07.2017 21:46 19,9 C 18,9 C 17,2 C 72 % 0 lf 1021,8 hPa 0,0 l/m 0 min 0 min 0 W/m 4,2 km/h (1 Bft) 100,00 %
15.07.2017 21:48 19,9 C 18,9 C 17,2 C 73 % 0 lf 1021,8 hPa 0,0 l/m 0 min 0 min 0 W/m 6,3 km/h (2 Bft) 100,00 %
15.07.2017 21:50 19,9 C 18,9 C 17,2 C 73 % 0 lf 1021,8 hPa 0,0 l/m 0 min 0 min 0 W/m 4,2 km/h (1 Bft) 100,00 %
15.07.2017 21:52 19,9 C 18,9 C 17,2 C 74 % 0 lf 1021,9 hPa 0,0 l/m 0 min 0 min 0 W/m 4,2 km/h (1 Bft) 100,00 %
15.07.2017 21:54 19,9 C 18,9 C 17,2 C 74 % 0 lf 1021,9 hPa 0,0 l/m 0 min 0 min 0 W/m 6,3 km/h (2 Bft) 100,00 %
15.07.2017 21:56 19,9 C 18,9 C 17,2 C 74 % 0 lf 1021,9 hPa 0,0 l/m 0 min 0 min 0 W/m 4,2 km/h (1 Bft) 100,00 %
15.07.2017 21:58 19,8 C 18,9 C 17,2 C 74 % 0 lf 1021,9 hPa 0,0 l/m 0 min 0 min 0 W/m 4,2 km/h (1 Bft) 100,00 %
15.07.2017 22:00 19,8 C 18,9 C 17,2 C 74 % 0 lf 1021,9 hPa 0,0 l/m 0 min 0 min 0 W/m 4,2 km/h (1 Bft) 100,00 %
15.07.2017 22:02 19,8 C 18,9 C 17,2 C 74 % 0 lf 1021,9 hPa 0,0 l/m 0 min 0 min 0 W/m 4,2 km/h (1 Bft) 95,74 %
15.07.2017 22:04 19,7 C 18,9 C 17,2 C 74 % 0 lf 1021,8 hPa 0,0 l/m 0 min 0 min 0 W/m 4,2 km/h (1 Bft) 97,87 %
15.07.2017 22:06 19,7 C 18,9 C 17,2 C 75 % 0 lf 1021,8 hPa 0,0 l/m 0 min 0 min 0 W/m 4,2 km/h (1 Bft) 100,00 %
15.07.2017 22:08 19,7 C 18,9 C 17,2 C 75 % 0 lf 1021,8 hPa 0,0 l/m 0 min 0 min 0 W/m 4,2 km/h (1 Bft) 100,00 %
15.07.2017 22:10 19,7 C 18,9 C 17,2 C 75 % 0 lf 1021,9 hPa 0,0 l/m 0 min 0 min 0 W/m 4,2 km/h (1 Bft) 100,00 %
15.07.2017 22:12 19,6 C 18,9 C 17,2 C 75 % 0 lf 1021,9 hPa 0,0 l/m 0 min 0 min 0 W/m 4,2 km/h (1 Bft) 100,00 %
15.07.2017 22:14 19,6 C 18,9 C 17,2 C 75 % 0 lf 1021,9 hPa 0,0 l/m 0 min 0 min 0 W/m 4,2 km/h (1 Bft) 97,87 %
15.07.2017 22:16 19,5 C 18,9 C 17,2 C 74 % 0 lf 1022,0 hPa 0,0 l/m 0 min 0 min 0 W/m 6,3 km/h (2 Bft) 100,00 %
15.07.2017 22:18 19,5 C 18,9 C 17,2 C 74 % 0 lf 1021,9 hPa 0,0 l/m 0 min 0 min 0 W/m 4,2 km/h (1 Bft) 100,00 %
15.07.2017 22:20 19,4 C 18,9 C 17,2 C 74 % 0 lf 1022,0 hPa 0,0 l/m 0 min 0 min 2 W/m 4,2 km/h (1 Bft) 97,87 %
15.07.2017 22:22 19,4 C 18,9 C 17,2 C 74 % 0 lf 1021,9 hPa 0,0 l/m 0 min 0 min 0 W/m 4,2 km/h (1 Bft) 97,87 %
15.07.2017 22:24 19,4 C 18,9 C 17,2 C 74 % 0 lf 1021,9 hPa 0,0 l/m 0 min 0 min 0 W/m 4,2 km/h (1 Bft) 100,00 %
15.07.2017 22:26 19,4 C 18,9 C 17,2 C 74 % 0 lf 1021,9 hPa 0,0 l/m 0 min 0 min 0 W/m 4,2 km/h (1 Bft) 97,87 %
15.07.2017 22:28 19,3 C 18,3 C 17,2 C 74 % 0 lf 1021,9 hPa 0,0 l/m 0 min 0 min 0 W/m 2,1 km/h (1 Bft) 100,00 %
15.07.2017 22:30 19,3 C 18,3 C 17,2 C 74 % 0 lf 1021,9 hPa 0,0 l/m 0 min 0 min 0 W/m 4,2 km/h (1 Bft) 100,00 %
15.07.2017 22:32 19,3 C 18,3 C 17,2 C 74 % 0 lf 1021,8 hPa 0,0 l/m 0 min 0 min 0 W/m 4,2 km/h (1 Bft) 100,00 %
15.07.2017 22:34 19,3 C 18,3 C 16,7 C 74 % 0 lf 1021,8 hPa 0,0 l/m 0 min 0 min 0 W/m 4,2 km/h (1 Bft) 100,00 %
15.07.2017 22:36 19,2 C 18,3 C 16,7 C 75 % 0 lf 1021,8 hPa 0,0 l/m 0 min 0 min 0 W/m 4,2 km/h (1 Bft) 95,65 %
15.07.2017 22:38 19,2 C 18,3 C 17,2 C 75 % 0 lf 1021,8 hPa 0,0 l/m 0 min 0 min 0 W/m 4,2 km/h (1 Bft) 97,87 %
15.07.2017 22:40 19,2 C 18,3 C 17,2 C 75 % 0 lf 1021,7 hPa 0,0 l/m 0 min 0 min 0 W/m 6,3 km/h (2 Bft) 100,00 %
15.07.2017 22:42 19,2 C 18,3 C 17,2 C 75 % 0 lf 1021,8 hPa 0,0 l/m 0 min 0 min 0 W/m 4,2 km/h (1 Bft) 97,87 %
15.07.2017 22:44 19,2 C 18,3 C 16,7 C 75 % 0 lf 1021,8 hPa 0,0 l/m 0 min 0 min 0 W/m 0,0 km/h (0 Bft) 97,87 %
15.07.2017 22:46 19,1 C 18,3 C 16,7 C 75 % 0 lf 1021,7 hPa 0,0 l/m 0 min 0 min 0 W/m 0,0 km/h (0 Bft) 100,00 %
15.07.2017 22:48 19,1 C 18,3 C 16,7 C 75 % 0 lf 1021,7 hPa 0,0 l/m 0 min 0 min 0 W/m 0,0 km/h (0 Bft) 95,74 %
15.07.2017 22:50 19,1 C 18,3 C 16,7 C 75 % 0 lf 1021,8 hPa 0,0 l/m 0 min 0 min 0 W/m 0,0 km/h (0 Bft) 100,00 %
15.07.2017 22:52 19,1 C 18,3 C 16,7 C 75 % 0 lf 1021,8 hPa 0,0 l/m 0 min 0 min 0 W/m 0,0 km/h (0 Bft) 97,87 %
15.07.2017 22:54 19,0 C 18,3 C 16,7 C 75 % 0 lf 1021,8 hPa 0,0 l/m 0 min 0 min 0 W/m 0,0 km/h (0 Bft) 97,87 %
15.07.2017 22:56 19,0 C 18,3 C 16,7 C 75 % 0 lf 1021,8 hPa 0,0 l/m 0 min 0 min 0 W/m 0,0 km/h (0 Bft) 91,49 %
15.07.2017 22:58 19,0 C 18,3 C 16,7 C 75 % 0 lf 1021,7 hPa 0,0 l/m 0 min 0 min 0 W/m 0,0 km/h (0 Bft) 100,00 %
15.07.2017 23:00 18,9 C 18,3 C 16,7 C 75 % 0 lf 1021,7 hPa 0,0 l/m 0 min 0 min 0 W/m 0,0 km/h (0 Bft) 100,00 %
15.07.2017 23:02 18,9 C 18,3 C 16,7 C 75 % 0 lf 1021,8 hPa 0,0 l/m 0 min 0 min 0 W/m 0,0 km/h (0 Bft) 97,87 %
15.07.2017 23:04 18,9 C 18,3 C 16,7 C 75 % 0 lf 1021,7 hPa 0,0 l/m 0 min 0 min 0 W/m 0,0 km/h (0 Bft) 95,74 %
15.07.2017 23:06 18,9 C 18,3 C 16,7 C 75 % 0 lf 1021,7 hPa 0,0 l/m 0 min 0 min 0 W/m 0,0 km/h (0 Bft) 95,74 %
15.07.2017 23:08 18,9 C 18,3 C 16,7 C 75 % 0 lf 1021,7 hPa 0,0 l/m 0 min 0 min 0 W/m 0,0 km/h (0 Bft) 95,74 %
15.07.2017 23:10 18,8 C 18,3 C 16,7 C 76 % 0 lf 1021,7 hPa 0,0 l/m 0 min 0 min 0 W/m 0,0 km/h (0 Bft) 93,48 %
15.07.2017 23:12 18,8 C 18,3 C 16,7 C 76 % 0 lf 1021,7 hPa 0,0 l/m 0 min 0 min 0 W/m 0,0 km/h (0 Bft) 91,49 %
15.07.2017 23:14 18,8 C 18,3 C 16,7 C 76 % 0 lf 1021,7 hPa 0,0 l/m 0 min 0 min 0 W/m 0,0 km/h (0 Bft) 93,62 %
15.07.2017 23:16 18,8 C 18,3 C 16,7 C 76 % 0 lf 1021,7 hPa 0,0 l/m 0 min 0 min 0 W/m 0,0 km/h (0 Bft) 95,74 %
15.07.2017 23:18 18,7 C 18,3 C 16,7 C 76 % 0 lf 1021,7 hPa 0,0 l/m 0 min 0 min 0 W/m 0,0 km/h (0 Bft) 93,62 %
15.07.2017 23:20 18,7 C 18,3 C 16,7 C 76 % 0 lf 1021,7 hPa 0,0 l/m 0 min 0 min 0 W/m 0,0 km/h (0 Bft) 93,62 %
15.07.2017 23:22 18,7 C 18,3 C 16,7 C 76 % 0 lf 1021,8 hPa 0,0 l/m 0 min 0 min 0 W/m 0,0 km/h (0 Bft) 89,13 %
15.07.2017 23:24 18,7 C 18,3 C 16,7 C 76 % 0 lf 1021,7 hPa 0,0 l/m 0 min 0 min 0 W/m 0,0 km/h (0 Bft) 89,36 %
15.07.2017 23:26 18,7 C 18,3 C 16,7 C 76 % 0 lf 1021,7 hPa 0,0 l/m 0 min 0 min 0 W/m 0,0 km/h (0 Bft) 91,49 %
15.07.2017 23:28 18,7 C 18,3 C 16,7 C 76 % 0 lf 1021,7 hPa 0,0 l/m 0 min 0 min 0 W/m 0,0 km/h (0 Bft) 91,49 %
15.07.2017 23:30 18,7 C 17,8 C 16,7 C 76 % 0 lf 1021,7 hPa 0,0 l/m 0 min 0 min 0 W/m 0,0 km/h (0 Bft) 87,23 %
15.07.2017 23:32 18,6 C 17,8 C 16,7 C 76 % 0 lf 1021,6 hPa 0,0 l/m 0 min 0 min 0 W/m 0,0 km/h (0 Bft) 89,36 %
15.07.2017 23:34 18,6 C 17,8 C 16,7 C 76 % 0 lf 1021,6 hPa 0,0 l/m 0 min 0 min 0 W/m 0,0 km/h (0 Bft) 89,13 %
15.07.2017 23:36 18,6 C 17,8 C 16,7 C 77 % 0 lf 1021,6 hPa 0,0 l/m 0 min 0 min 0 W/m 0,0 km/h (0 Bft) 91,49 %
15.07.2017 23:38 18,6 C 17,8 C 16,7 C 77 % 0 lf 1021,6 hPa 0,0 l/m 0 min 0 min 0 W/m 0,0 km/h (0 Bft) 93,62 %
15.07.2017 23:40 18,6 C 17,8 C 16,7 C 77 % 0 lf 1021,6 hPa 0,0 l/m 0 min 0 min 0 W/m 0,0 km/h (0 Bft) 95,74 %
15.07.2017 23:42 18,5 C 17,8 C 16,7 C 77 % 0 lf 1021,6 hPa 0,0 l/m 0 min 0 min 0 W/m 0,0 km/h (0 Bft) 91,49 %
15.07.2017 23:44 18,5 C 17,8 C 16,7 C 77 % 0 lf 1021,6 hPa 0,0 l/m 0 min 0 min 0 W/m 0,0 km/h (0 Bft) 91,49 %
15.07.2017 23:46 18,5 C 17,8 C 16,7 C 77 % 0 lf 1021,6 hPa 0,0 l/m 0 min 0 min 0 W/m 0,0 km/h (0 Bft) 93,48 %
15.07.2017 23:48 18,5 C 17,8 C 16,7 C 77 % 0 lf 1021,6 hPa 0,0 l/m 0 min 0 min 0 W/m 0,0 km/h (0 Bft) 89,36 %
15.07.2017 23:50 18,4 C 17,8 C 16,7 C 77 % 0 lf 1021,6 hPa 0,0 l/m 0 min 0 min 0 W/m 0,0 km/h (0 Bft) 93,62 %
15.07.2017 23:52 18,4 C 17,8 C 16,7 C 77 % 0 lf 1021,6 hPa 0,0 l/m 0 min 0 min 0 W/m 0,0 km/h (0 Bft) 93,62 %
15.07.2017 23:54 18,4 C 17,8 C 16,7 C 77 % 0 lf 1021,6 hPa 0,0 l/m 0 min 0 min 0 W/m 0,0 km/h (0 Bft) 95,74 %
15.07.2017 23:56 18,4 C 17,8 C 16,7 C 77 % 0 lf 1021,6 hPa 0,0 l/m 0 min 0 min 0 W/m 0,0 km/h (0 Bft) 95,74 %
15.07.2017 23:58 18,4 C 17,8 C 16,7 C 77 % 0 lf 1021,5 hPa 0,0 l/m 0 min 0 min 0 W/m 0,0 km/h (0 Bft) 93,48 %
_ Min-Zeit 04:22 02:48 03:20 13:42 00:00 00:00 - - - - 01:04 08:04
Minimum _ 10,9 C 10,0 C 8,9 C 55 % 0 lf 1018,8 hPa - - - - 0,0 km/h (0 Bft) 83,33 %
_ Max-Zeit 13:40 10:44 11:58 05:22 03:24 12:22 00:00 12:10 00:00 13:54 12:58 00:04
Maximum _ 22,9 C 33,3 C 28,3 C 95 % 2 lf 1022,1 hPa 0,0 l/m 4 min 0 min 1113 W/m 29,3 km/h
W-SW (5 Bft)
100,00 %
Durchschnitt _ 17,4 C 19,5 C 17,4 C 76 % 0 lf 1021,1 hPa #0,0 l/m #9:48 h #0 min. 359 W/m 8,6 km/h (2 Bft) 96,16 %
© 2017 W. Hausmann